| time (UTC) | temp F | wind direction | speed MPH | gust MPH | rain 1hr in | rain 24hr in | rain mn in | humidity % | barometer mb |
| 20260509164640 | 63 | 68 | 1.0 | 4.0 | 0.00 | 0.00 | 0.00 | 52 | 1019.7 |
| 20260509164505 | 63 | 68 | 2.0 | 4.0 | 0.00 | 0.00 | 0.00 | 51 | 1019.7 |
| 20260509164320 | 63 | 68 | 2.0 | 2.0 | 0.00 | 0.00 | 0.00 | 50 | 1019.8 |
| 20260509164125 | 64 | 68 | 2.0 | 5.0 | 0.00 | 0.00 | 0.00 | 50 | 1019.7 |
| 20260509163940 | 64 | 68 | 2.0 | 5.0 | 0.00 | 0.00 | 0.00 | 50 | 1019.7 |
| 20260509163750 | 64 | 90 | 2.0 | 4.0 | 0.00 | 0.00 | 0.00 | 50 | 1019.8 |
| 20260509163610 | 64 | 90 | 2.0 | 4.0 | 0.00 | 0.00 | 0.00 | 50 | 1019.8 |
| 20260509163411 | 64 | 90 | 2.0 | 5.0 | 0.00 | 0.00 | 0.00 | 49 | 1019.9 |
| 20260509163212 | 64 | 68 | 3.0 | 5.0 | 0.00 | 0.00 | 0.00 | 48 | 1019.9 |
| 20260509163030 | 64 | 68 | 3.0 | 5.0 | 0.00 | 0.00 | 0.00 | 48 | 1019.9 |
| 20260509162850 | 64 | 68 | 3.0 | 7.0 | 0.00 | 0.00 | 0.00 | 49 | 1019.8 |
| 20260509162709 | 64 | 68 | 3.0 | 7.0 | 0.00 | 0.00 | 0.00 | 48 | 1020.0 |
| 20260509162520 | 64 | 45 | 3.0 | 7.0 | 0.00 | 0.00 | 0.00 | 49 | 1019.9 |
| 20260509162342 | 64 | 68 | 2.0 | 5.0 | 0.00 | 0.00 | 0.00 | 47 | 1020.0 |
| 20260509162200 | 64 | 68 | 3.0 | 5.0 | 0.00 | 0.00 | 0.00 | 48 | 1019.9 |
| 20260509162014 | 64 | 90 | 3.0 | 5.0 | 0.00 | 0.00 | 0.00 | 47 | 1020.0 |
| 20260509161832 | 64 | 45 | 3.0 | 5.0 | 0.00 | 0.00 | 0.00 | 48 | 1019.9 |
| 20260509161801 | 64 | 45 | 3.0 | 5.0 | 0.00 | 0.00 | 0.00 | 48 | 1020.0 |
| 20260509161635 | 64 | 68 | 3.0 | 5.0 | 0.00 | 0.00 | 0.00 | 48 | 1020.1 |
| 20260509161438 | 64 | 90 | 4.0 | 7.0 | 0.00 | 0.00 | 0.00 | 49 | 1020.1 |
| 20260509161240 | 64 | 68 | 4.0 | 7.0 | 0.00 | 0.00 | 0.00 | 49 | 1020.0 |
| 20260509161050 | 64 | 68 | 4.0 | 7.0 | 0.00 | 0.00 | 0.00 | 49 | 1020.1 |
| 20260509160852 | 64 | 68 | 4.0 | 5.0 | 0.00 | 0.00 | 0.00 | 49 | 1020.0 |
| 20260509160705 | 64 | 90 | 4.0 | 5.0 | 0.00 | 0.00 | 0.00 | 48 | 1020.1 |
| 20260509160525 | 64 | 68 | 4.0 | 9.0 | 0.00 | 0.00 | 0.00 | 49 | 1020.1 |
| 20260509160345 | 64 | 68 | 4.0 | 9.0 | 0.00 | 0.00 | 0.00 | 49 | 1020.1 |
| 20260509160149 | 64 | 68 | 3.0 | 9.0 | 0.00 | 0.00 | 0.00 | 48 | 1020.2 |
| 20260509160005 | 64 | 90 | 2.0 | 5.0 | 0.00 | 0.00 | 0.00 | 48 | 1020.1 |
| 20260509155925 | 64 | 22 | 2.0 | 5.0 | 0.00 | 0.00 | 0.00 | 48 | 1020.2 |
| 20260509155820 | 65 | 22 | 2.0 | 5.0 | 0.00 | 0.00 | 0.00 | 48 | 1020.1 |
| 20260509155622 | 65 | 90 | 2.0 | 5.0 | 0.00 | 0.00 | 0.00 | 48 | 1020.2 |
| 20260509155428 | 65 | 68 | 2.0 | 5.0 | 0.00 | 0.00 | 0.00 | 48 | 1020.2 |
| 20260509155247 | 65 | 90 | 2.0 | 5.0 | 0.00 | 0.00 | 0.00 | 48 | 1020.3 |
| 20260509155105 | 65 | 68 | 1.0 | 2.0 | 0.00 | 0.00 | 0.00 | 46 | 1020.3 |
| 20260509154921 | 64 | 68 | 1.0 | 3.0 | 0.00 | 0.00 | 0.00 | 46 | 1020.3 |
| 20260509154735 | 64 | 68 | 2.0 | 3.0 | 0.00 | 0.00 | 0.00 | 45 | 1020.4 |
| 20260509154548 | 64 | 68 | 2.0 | 2.0 | 0.00 | 0.00 | 0.00 | 45 | 1020.4 |
| 20260509154410 | 64 | 68 | 2.0 | 2.0 | 0.00 | 0.00 | 0.00 | 45 | 1020.5 |
| 20260509154231 | 64 | 68 | 2.0 | 5.0 | 0.00 | 0.00 | 0.00 | 45 | 1020.5 |
| 20260509154210 | 64 | 68 | 2.0 | 5.0 | 0.00 | 0.00 | 0.00 | 45 | 1020.5 |
| 20260509154025 | 64 | 68 | 2.0 | 5.0 | 0.00 | 0.00 | 0.00 | 46 | 1020.4 |
| 20260509153830 | 64 | 68 | 2.0 | 5.0 | 0.00 | 0.00 | 0.00 | 47 | 1020.5 |
| 20260509153632 | 64 | 68 | 1.0 | 6.0 | 0.00 | 0.00 | 0.00 | 46 | 1020.6 |
| 20260509153444 | 64 | 68 | 0.0 | 2.0 | 0.00 | 0.00 | 0.00 | 46 | 1020.5 |
| 20260509153247 | 63 | 68 | 1.0 | 1.0 | 0.00 | 0.00 | 0.00 | 46 | 1020.5 |
| 20260509153050 | 63 | 68 | 2.0 | 1.0 | 0.00 | 0.00 | 0.00 | 45 | 1020.6 |
| 20260509152904 | 63 | 68 | 2.0 | 4.0 | 0.00 | 0.00 | 0.00 | 46 | 1020.7 |
| 20260509152716 | 63 | 68 | 2.0 | 5.0 | 0.00 | 0.00 | 0.00 | 46 | 1020.7 |
| 20260509152533 | 64 | 68 | 3.0 | 5.0 | 0.00 | 0.00 | 0.00 | 46 | 1020.7 |
| 20260509152355 | 64 | 68 | 3.0 | 5.0 | 0.00 | 0.00 | 0.00 | 46 | 1020.7 |
| 20260509152200 | 64 | 68 | 3.0 | 5.0 | 0.00 | 0.00 | 0.00 | 48 | 1020.7 |
| 20260509152010 | 64 | 68 | 3.0 | 5.0 | 0.00 | 0.00 | 0.00 | 46 | 1020.7 |
| 20260509151815 | 64 | 68 | 3.0 | 5.0 | 0.00 | 0.00 | 0.00 | 47 | 1020.7 |
| 20260509151625 | 64 | 90 | 2.0 | 5.0 | 0.00 | 0.00 | 0.00 | 48 | 1020.7 |
| 20260509151430 | 65 | 22 | 2.0 | 5.0 | 0.00 | 0.00 | 0.00 | 46 | 1020.6 |
| 20260509151245 | 65 | 90 | 2.0 | 5.0 | 0.00 | 0.00 | 0.00 | 47 | 1020.7 |
| 20260509151044 | 65 | 68 | 1.0 | 6.0 | 0.00 | 0.00 | 0.00 | 46 | 1020.7 |
| 20260509150911 | 64 | 68 | 1.0 | 5.0 | 0.00 | 0.00 | 0.00 | 47 | 1020.7 |
| 20260509150850 | 64 | 68 | 1.0 | 5.0 | 0.00 | 0.00 | 0.00 | 47 | 1020.7 |
| 20260509150702 | 64 | 68 | 1.0 | 5.0 | 0.00 | 0.00 | 0.00 | 46 | 1020.7 |
| 20260509150513 | 64 | 90 | 1.0 | 5.0 | 0.00 | 0.00 | 0.00 | 46 | 1020.7 |
| 20260509150322 | 64 | 90 | 1.0 | 2.0 | 0.00 | 0.00 | 0.00 | 46 | 1020.7 |
| 20260509150140 | 64 | 90 | 1.0 | 4.0 | 0.00 | 0.00 | 0.00 | 47 | 1020.7 |
| 20260509145959 | 64 | 90 | 1.0 | 4.0 | 0.00 | 0.00 | 0.00 | 46 | 1020.7 |
| 20260509145808 | 64 | 90 | 1.0 | 4.0 | 0.00 | 0.00 | 0.00 | 47 | 1020.7 |
| 20260509145622 | 64 | 90 | 1.0 | 3.0 | 0.00 | 0.00 | 0.00 | 45 | 1020.8 |
| 20260509145431 | 64 | 90 | 0.0 | 2.0 | 0.00 | 0.00 | 0.00 | 46 | 1020.7 |
| 20260509145348 | 64 | 90 | 0.0 | 2.0 | 0.00 | 0.00 | 0.00 | 45 | 1020.7 |
| 20260509145235 | 64 | 90 | 0.0 | 2.0 | 0.00 | 0.00 | 0.00 | 45 | 1020.7 |
| 20260509145042 | 64 | 90 | 1.0 | 0.0 | 0.00 | 0.00 | 0.00 | 46 | 1020.7 |
| 20260509144905 | 64 | 90 | 1.0 | 2.0 | 0.00 | 0.00 | 0.00 | 45 | 1020.7 |
| 20260509144715 | 63 | 90 | 2.0 | 5.0 | 0.00 | 0.00 | 0.00 | 45 | 1020.8 |
| 20260509144535 | 64 | 90 | 2.0 | 5.0 | 0.00 | 0.00 | 0.00 | 45 | 1020.8 |
| 20260509144335 | 64 | 90 | 2.0 | 5.0 | 0.00 | 0.00 | 0.00 | 46 | 1020.8 |
| 20260509144145 | 64 | 68 | 2.0 | 5.0 | 0.00 | 0.00 | 0.00 | 46 | 1020.8 |
| 20260509143955 | 63 | 68 | 2.0 | 5.0 | 0.00 | 0.00 | 0.00 | 46 | 1020.8 |
| 20260509143810 | 64 | 68 | 2.0 | 5.0 | 0.00 | 0.00 | 0.00 | 46 | 1020.8 |
| 20260509143758 | 64 | 68 | 2.0 | 5.0 | 0.00 | 0.00 | 0.00 | 46 | 1020.7 |
| 20260509143617 | 64 | 68 | 2.0 | 5.0 | 0.00 | 0.00 | 0.00 | 45 | 1020.7 |
| 20260509143422 | 64 | 68 | 1.0 | 2.0 | 0.00 | 0.00 | 0.00 | 45 | 1020.7 |
| 20260509143232 | 63 | 68 | 2.0 | 2.0 | 0.00 | 0.00 | 0.00 | 46 | 1020.8 |
| 20260509143055 | 64 | 68 | 2.0 | 3.0 | 0.00 | 0.00 | 0.00 | 46 | 1020.7 |
| 20260509142910 | 64 | 68 | 2.0 | 3.0 | 0.00 | 0.00 | 0.00 | 45 | 1020.7 |
| 20260509142720 | 64 | 90 | 3.0 | 3.0 | 0.00 | 0.00 | 0.00 | 46 | 1020.8 |
| 20260509142530 | 64 | 90 | 3.0 | 4.0 | 0.00 | 0.00 | 0.00 | 45 | 1020.8 |
| 20260509142340 | 64 | 90 | 3.0 | 5.0 | 0.00 | 0.00 | 0.00 | 46 | 1020.8 |
| 20260509142150 | 64 | 90 | 3.0 | 5.0 | 0.00 | 0.00 | 0.00 | 46 | 1020.8 |
| 20260509142014 | 65 | 68 | 3.0 | 5.0 | 0.00 | 0.00 | 0.00 | 46 | 1020.8 |
| 20260509141952 | 65 | 68 | 3.0 | 5.0 | 0.00 | 0.00 | 0.00 | 46 | 1020.8 |
| 20260509141830 | 65 | 68 | 2.0 | 5.0 | 0.00 | 0.00 | 0.00 | 45 | 1020.8 |
| 20260509141650 | 65 | 45 | 2.0 | 5.0 | 0.00 | 0.00 | 0.00 | 45 | 1020.8 |
| 20260509141456 | 65 | 22 | 2.0 | 5.0 | 0.00 | 0.00 | 0.00 | 45 | 1020.9 |
| 20260509141312 | 65 | 22 | 2.0 | 5.0 | 0.00 | 0.00 | 0.00 | 44 | 1020.9 |
| 20260509141120 | 65 | 292 | 2.0 | 5.0 | 0.00 | 0.00 | 0.00 | 44 | 1020.9 |
| 20260509140932 | 65 | 270 | 1.0 | 5.0 | 0.00 | 0.00 | 0.00 | 43 | 1020.9 |
| 20260509140755 | 65 | 45 | 1.0 | 5.0 | 0.00 | 0.00 | 0.00 | 43 | 1021.0 |
| 20260509140555 | 65 | 22 | 1.0 | 5.0 | 0.00 | 0.00 | 0.00 | 43 | 1021.0 |
| 20260509140415 | 66 | 22 | 1.0 | 5.0 | 0.00 | 0.00 | 0.00 | 43 | 1021.0 |
| 20260509140235 | 66 | 0 | 1.0 | 2.0 | 0.00 | 0.00 | 0.00 | 43 | 1021.0 |
| 20260509140050 | 66 | 338 | 1.0 | 2.0 | 0.00 | 0.00 | 0.00 | 42 | 1021.0 |
| 20260509135852 | 66 | 248 | 1.0 | 3.0 | 0.00 | 0.00 | 0.00 | 41 | 1021.0 |
| 20260509135705 | 66 | 248 | 1.0 | 3.0 | 0.00 | 0.00 | 0.00 | 42 | 1021.1 |
| 20260509135512 | 67 | 248 | 1.0 | 3.0 | 0.00 | 0.00 | 0.00 | 40 | 1021.1 |
| 20260509135325 | 67 | 22 | 1.0 | 3.0 | 0.00 | 0.00 | 0.00 | 41 | 1021.1 |
| 20260509135140 | 67 | 22 | 1.0 | 2.0 | 0.00 | 0.00 | 0.00 | 41 | 1021.2 |
| 20260509135000 | 67 | 22 | 1.0 | 3.0 | 0.00 | 0.00 | 0.00 | 41 | 1021.1 |
| 20260509134805 | 67 | 45 | 1.0 | 4.0 | 0.00 | 0.00 | 0.00 | 40 | 1021.1 |
| 20260509134610 | 67 | 45 | 1.0 | 4.0 | 0.00 | 0.00 | 0.00 | 40 | 1021.0 |
| 20260509134537 | 67 | 45 | 1.0 | 4.0 | 0.00 | 0.00 | 0.00 | 40 | 1021.1 |
| 20260509134420 | 67 | 45 | 1.0 | 5.0 | 0.00 | 0.00 | 0.00 | 42 | 1021.1 |
| 20260509134232 | 67 | 45 | 1.0 | 5.0 | 0.00 | 0.00 | 0.00 | 42 | 1021.1 |
| 20260509134040 | 67 | 68 | 1.0 | 3.0 | 0.00 | 0.00 | 0.00 | 39 | 1021.1 |
| 20260509133855 | 67 | 22 | 1.0 | 2.0 | 0.00 | 0.00 | 0.00 | 39 | 1021.2 |
| 20260509133655 | 67 | 22 | 1.0 | 2.0 | 0.00 | 0.00 | 0.00 | 40 | 1021.2 |
| 20260509133520 | 67 | 22 | 1.0 | 2.0 | 0.00 | 0.00 | 0.00 | 40 | 1021.2 |
| 20260509133327 | 67 | 45 | 1.0 | 2.0 | 0.00 | 0.00 | 0.00 | 41 | 1021.2 |
| 20260509133130 | 67 | 45 | 1.0 | 2.0 | 0.00 | 0.00 | 0.00 | 41 | 1021.3 |
| 20260509132935 | 67 | 292 | 2.0 | 2.0 | 0.00 | 0.00 | 0.00 | 40 | 1021.2 |
| 20260509132917 | 68 | 292 | 2.0 | 2.0 | 0.00 | 0.00 | 0.00 | 39 | 1021.3 |
| 20260509132758 | 68 | 292 | 2.0 | 3.0 | 0.00 | 0.00 | 0.00 | 40 | 1021.3 |
| 20260509132615 | 68 | 292 | 2.0 | 3.0 | 0.00 | 0.00 | 0.00 | 40 | 1021.3 |
| 20260509132420 | 68 | 292 | 2.0 | 3.0 | 0.00 | 0.00 | 0.00 | 39 | 1021.3 |
| 20260509132225 | 68 | 270 | 2.0 | 4.0 | 0.00 | 0.00 | 0.00 | 38 | 1021.4 |
| 20260509132045 | 68 | 22 | 2.0 | 4.0 | 0.00 | 0.00 | 0.00 | 38 | 1021.3 |
| 20260509131855 | 68 | 22 | 2.0 | 4.0 | 0.00 | 0.00 | 0.00 | 38 | 1021.4 |
| 20260509131700 | 67 | 22 | 3.0 | 5.0 | 0.00 | 0.00 | 0.00 | 39 | 1021.3 |
| 20260509131510 | 67 | 45 | 3.0 | 6.0 | 0.00 | 0.00 | 0.00 | 40 | 1021.3 |
| 20260509131310 | 67 | 45 | 3.0 | 6.0 | 0.00 | 0.00 | 0.00 | 40 | 1021.4 |
| 20260509131130 | 67 | 68 | 2.0 | 6.0 | 0.00 | 0.00 | 0.00 | 40 | 1021.4 |
| 20260509130930 | 67 | 22 | 2.0 | 6.0 | 0.00 | 0.00 | 0.00 | 41 | 1021.4 |
| 20260509130730 | 66 | 158 | 1.0 | 2.0 | 0.00 | 0.00 | 0.00 | 39 | 1021.4 |
| 20260509130532 | 66 | 90 | 1.0 | 2.0 | 0.00 | 0.00 | 0.00 | 40 | 1021.4 |
| 20260509130352 | 65 | 90 | 1.0 | 5.0 | 0.00 | 0.00 | 0.00 | 41 | 1021.5 |
| 20260509130201 | 64 | 90 | 1.0 | 5.0 | 0.00 | 0.00 | 0.00 | 42 | 1021.5 |
| 20260509130010 | 64 | 90 | 1.0 | 2.0 | 0.00 | 0.00 | 0.00 | 43 | 1021.6 |
| 20260509125832 | 63 | 90 | 2.0 | 2.0 | 0.00 | 0.00 | 0.00 | 44 | 1021.6 |
| 20260509125650 | 63 | 90 | 2.0 | 3.0 | 0.00 | 0.00 | 0.00 | 43 | 1021.6 |
| 20260509125509 | 63 | 225 | 2.0 | 4.0 | 0.00 | 0.00 | 0.00 | 45 | 1021.6 |
| 20260509125310 | 63 | 248 | 3.0 | 4.0 | 0.00 | 0.00 | 0.00 | 45 | 1021.6 |
| 20260509125130 | 63 | 248 | 3.0 | 6.0 | 0.00 | 0.00 | 0.00 | 45 | 1021.6 |
| 20260509124942 | 64 | 270 | 3.0 | 6.0 | 0.00 | 0.00 | 0.00 | 44 | 1021.6 |
| 20260509124800 | 64 | 270 | 2.0 | 6.0 | 0.00 | 0.00 | 0.00 | 44 | 1021.6 |
| 20260509124610 | 64 | 248 | 2.0 | 4.0 | 0.00 | 0.00 | 0.00 | 44 | 1021.7 |
| 20260509124426 | 64 | 225 | 2.0 | 4.0 | 0.00 | 0.00 | 0.00 | 43 | 1021.7 |
| 20260509124240 | 64 | 225 | 2.0 | 4.0 | 0.00 | 0.00 | 0.00 | 44 | 1021.7 |
| 20260509124053 | 64 | 292 | 2.0 | 3.0 | 0.00 | 0.00 | 0.00 | 43 | 1021.7 |
| 20260509123908 | 64 | 292 | 2.0 | 3.0 | 0.00 | 0.00 | 0.00 | 43 | 1021.8 |
| 20260509123720 | 65 | 248 | 1.0 | 3.0 | 0.00 | 0.00 | 0.00 | 43 | 1021.7 |
| 20260509123540 | 65 | 248 | 1.0 | 3.0 | 0.00 | 0.00 | 0.00 | 43 | 1021.8 |
| 20260509123504 | 65 | 248 | 1.0 | 3.0 | 0.00 | 0.00 | 0.00 | 44 | 1021.7 |
| 20260509123340 | 65 | 248 | 1.0 | 3.0 | 0.00 | 0.00 | 0.00 | 43 | 1021.7 |
| 20260509123138 | 65 | 248 | 1.0 | 3.0 | 0.00 | 0.00 | 0.00 | 42 | 1021.8 |
| 20260509122945 | 65 | 270 | 1.0 | 3.0 | 0.00 | 0.00 | 0.00 | 42 | 1021.8 |
| 20260509122751 | 65 | 45 | 1.0 | 2.0 | 0.00 | 0.00 | 0.00 | 42 | 1021.8 |
| 20260509122605 | 65 | 45 | 1.0 | 2.0 | 0.00 | 0.00 | 0.00 | 43 | 1021.8 |
| 20260509122425 | 65 | 45 | 2.0 | 4.0 | 0.00 | 0.00 | 0.00 | 42 | 1021.8 |
| 20260509122240 | 65 | 0 | 2.0 | 4.0 | 0.00 | 0.00 | 0.00 | 42 | 1021.8 |
| 20260509122052 | 65 | 0 | 2.0 | 4.0 | 0.00 | 0.00 | 0.00 | 41 | 1021.8 |
| 20260509121915 | 65 | 90 | 2.0 | 6.0 | 0.00 | 0.00 | 0.00 | 43 | 1021.8 |
| 20260509121720 | 65 | 90 | 2.0 | 6.0 | 0.00 | 0.00 | 0.00 | 44 | 1021.8 |
| 20260509121657 | 65 | 90 | 2.0 | 6.0 | 0.00 | 0.00 | 0.00 | 44 | 1021.8 |
| 20260509121525 | 64 | 45 | 1.0 | 5.0 | 0.00 | 0.00 | 0.00 | 42 | 1021.8 |
| 20260509121328 | 64 | 22 | 1.0 | 5.0 | 0.00 | 0.00 | 0.00 | 43 | 1021.8 |
| 20260509121135 | 64 | 22 | 1.0 | 2.0 | 0.00 | 0.00 | 0.00 | 43 | 1021.8 |
| 20260509120939 | 64 | 22 | 2.0 | 5.0 | 0.00 | 0.00 | 0.00 | 42 | 1021.8 |
| 20260509120545 | 64 | 22 | 3.0 | 7.0 | 0.00 | 0.00 | 0.00 | 44 | 1022.0 |
| 20260509120406 | 64 | 22 | 3.0 | 7.0 | 0.00 | 0.00 | 0.00 | 44 | 1021.9 |
| 20260509120220 | 64 | 45 | 3.0 | 7.0 | 0.00 | 0.00 | 0.00 | 43 | 1021.9 |
| 20260509120039 | 64 | 45 | 3.0 | 6.0 | 0.00 | 0.00 | 0.00 | 44 | 1021.9 |
| 20260509115956 | 64 | 45 | 3.0 | 6.0 | 0.00 | 0.00 | 0.00 | 43 | 1021.9 |
| 20260509115903 | 64 | 45 | 3.0 | 6.0 | 0.00 | 0.00 | 0.00 | 43 | 1021.9 |
| 20260509115712 | 64 | 68 | 3.0 | 6.0 | 0.00 | 0.00 | 0.00 | 44 | 1021.9 |
| 20260509115517 | 64 | 68 | 3.0 | 6.0 | 0.00 | 0.00 | 0.00 | 43 | 1021.9 |
| 20260509115325 | 64 | 45 | 3.0 | 5.0 | 0.00 | 0.00 | 0.00 | 45 | 1021.9 |
| 20260509115128 | 64 | 45 | 2.0 | 5.0 | 0.00 | 0.00 | 0.00 | 45 | 1022.0 |
| 20260509114939 | 64 | 68 | 2.0 | 5.0 | 0.00 | 0.00 | 0.00 | 43 | 1021.9 |
| 20260509114745 | 64 | 68 | 2.0 | 4.0 | 0.00 | 0.00 | 0.00 | 43 | 1021.9 |
| 20260509114550 | 64 | 68 | 2.0 | 6.0 | 0.00 | 0.00 | 0.00 | 43 | 1021.9 |
| 20260509114405 | 64 | 68 | 2.0 | 6.0 | 0.00 | 0.00 | 0.00 | 43 | 1022.0 |
| 20260509114335 | 64 | 68 | 2.0 | 6.0 | 0.00 | 0.00 | 0.00 | 43 | 1021.9 |
| 20260509114202 | 64 | 90 | 2.0 | 5.0 | 0.00 | 0.00 | 0.00 | 43 | 1022.0 |
| 20260509114003 | 64 | 90 | 2.0 | 3.0 | 0.00 | 0.00 | 0.00 | 42 | 1022.0 |
| 20260509113820 | 64 | 68 | 2.0 | 4.0 | 0.00 | 0.00 | 0.00 | 42 | 1021.9 |
| 20260509113625 | 64 | 68 | 3.0 | 5.0 | 0.00 | 0.00 | 0.00 | 43 | 1021.9 |
| 20260509113425 | 64 | 68 | 3.0 | 8.0 | 0.00 | 0.00 | 0.00 | 44 | 1022.0 |
| 20260509113225 | 64 | 68 | 3.0 | 8.0 | 0.00 | 0.00 | 0.00 | 45 | 1022.0 |
| 20260509113045 | 64 | 68 | 4.0 | 8.0 | 0.00 | 0.00 | 0.00 | 47 | 1021.9 |
| 20260509112900 | 64 | 90 | 3.0 | 7.0 | 0.00 | 0.00 | 0.00 | 45 | 1022.0 |
| 20260509112715 | 64 | 68 | 2.0 | 5.0 | 0.00 | 0.00 | 0.00 | 43 | 1022.0 |
| 20260509112552 | 64 | 22 | 1.0 | 5.0 | 0.00 | 0.00 | 0.00 | 44 | 1022.0 |
| 20260509112520 | 64 | 68 | 1.0 | 5.0 | 0.00 | 0.00 | 0.00 | 44 | 1022.0 |
| 20260509112325 | 63 | 45 | 2.0 | 3.0 | 0.00 | 0.00 | 0.00 | 43 | 1022.0 |
| 20260509112130 | 63 | 68 | 2.0 | 3.0 | 0.00 | 0.00 | 0.00 | 43 | 1022.0 |
| 20260509111940 | 63 | 270 | 3.0 | 2.0 | 0.00 | 0.00 | 0.00 | 44 | 1022.0 |
| 20260509111752 | 63 | 270 | 3.0 | 5.0 | 0.00 | 0.00 | 0.00 | 44 | 1021.9 |
| 20260509111612 | 63 | 270 | 4.0 | 9.0 | 0.00 | 0.00 | 0.00 | 44 | 1022.0 |
| 20260509111412 | 63 | 68 | 3.0 | 9.0 | 0.00 | 0.00 | 0.00 | 44 | 1022.0 |
| 20260509111215 | 63 | 22 | 2.0 | 9.0 | 0.00 | 0.00 | 0.00 | 45 | 1022.1 |
| 20260509111040 | 63 | 90 | 1.0 | 4.0 | 0.00 | 0.00 | 0.00 | 43 | 1022.1 |
| 20260509110855 | 63 | 90 | 1.0 | 3.0 | 0.00 | 0.00 | 0.00 | 44 | 1022.1 |
| 20260509110752 | 62 | 158 | 1.0 | 4.0 | 0.00 | 0.00 | 0.00 | 45 | 1022.1 |
| 20260509110700 | 62 | 158 | 1.0 | 4.0 | 0.00 | 0.00 | 0.00 | 45 | 1022.1 |
| 20260509110510 | 62 | 270 | 1.0 | 4.0 | 0.00 | 0.00 | 0.00 | 46 | 1022.1 |
| 20260509110322 | 62 | 248 | 2.0 | 3.0 | 0.00 | 0.00 | 0.00 | 45 | 1022.1 |
| 20260509110143 | 62 | 248 | 2.0 | 4.0 | 0.00 | 0.00 | 0.00 | 47 | 1022.1 |
| 20260509105945 | 63 | 248 | 2.0 | 4.0 | 0.00 | 0.00 | 0.00 | 47 | 1022.2 |
| 20260509105800 | 63 | 248 | 2.0 | 5.0 | 0.00 | 0.00 | 0.00 | 46 | 1022.1 |
| 20260509105601 | 63 | 292 | 2.0 | 5.0 | 0.00 | 0.00 | 0.00 | 46 | 1022.2 |
| 20260509105405 | 64 | 248 | 2.0 | 5.0 | 0.00 | 0.00 | 0.00 | 47 | 1022.2 |
| 20260509105210 | 64 | 292 | 1.0 | 5.0 | 0.00 | 0.00 | 0.00 | 46 | 1022.1 |
| 20260509105137 | 64 | 292 | 1.0 | 5.0 | 0.00 | 0.00 | 0.00 | 46 | 1022.1 |
| 20260509105025 | 64 | 292 | 1.0 | 5.0 | 0.00 | 0.00 | 0.00 | 50 | 1022.2 |
| 20260509104842 | 64 | 248 | 1.0 | 3.0 | 0.00 | 0.00 | 0.00 | 47 | 1022.2 |
| 20260509104705 | 64 | 315 | 1.0 | 3.0 | 0.00 | 0.00 | 0.00 | 46 | 1022.2 |
| 20260509104520 | 64 | 248 | 1.0 | 3.0 | 0.00 | 0.00 | 0.00 | 44 | 1022.2 |
| 20260509104325 | 64 | 315 | 1.0 | 2.0 | 0.00 | 0.00 | 0.00 | 44 | 1022.2 |
| 20260509104145 | 64 | 315 | 1.0 | 4.0 | 0.00 | 0.00 | 0.00 | 44 | 1022.2 |
| 20260509103950 | 64 | 45 | 1.0 | 5.0 | 0.00 | 0.00 | 0.00 | 44 | 1022.2 |
| 20260509103805 | 64 | 45 | 1.0 | 5.0 | 0.00 | 0.00 | 0.00 | 46 | 1022.3 |
| 20260509103620 | 64 | 45 | 1.0 | 5.0 | 0.00 | 0.00 | 0.00 | 44 | 1022.3 |
| 20260509103435 | 64 | 68 | 1.0 | 2.0 | 0.00 | 0.00 | 0.00 | 44 | 1022.3 |
| 20260509103341 | 64 | 68 | 1.0 | 2.0 | 0.00 | 0.00 | 0.00 | 45 | 1022.3 |
| 20260509103253 | 63 | 68 | 1.0 | 2.0 | 0.00 | 0.00 | 0.00 | 45 | 1022.3 |
| 20260509103054 | 63 | 68 | 1.0 | 3.0 | 0.00 | 0.00 | 0.00 | 47 | 1022.3 |
| 20260509102914 | 63 | 68 | 2.0 | 5.0 | 0.00 | 0.00 | 0.00 | 47 | 1022.3 |
| 20260509102736 | 63 | 68 | 2.0 | 5.0 | 0.00 | 0.00 | 0.00 | 47 | 1022.3 |
| 20260509102555 | 63 | 22 | 2.0 | 5.0 | 0.00 | 0.00 | 0.00 | 45 | 1022.3 |
| 20260509102415 | 63 | 315 | 2.0 | 5.0 | 0.00 | 0.00 | 0.00 | 46 | 1022.3 |
| 20260509102239 | 63 | 292 | 3.0 | 5.0 | 0.00 | 0.00 | 0.00 | 46 | 1022.3 |
| 20260509102052 | 64 | 292 | 4.0 | 5.0 | 0.00 | 0.00 | 0.00 | 47 | 1022.3 |
| 20260509101855 | 64 | 45 | 4.0 | 5.0 | 0.00 | 0.00 | 0.00 | 45 | 1022.4 |
| 20260509101727 | 64 | 202 | 3.0 | 8.0 | 0.00 | 0.00 | 0.00 | 47 | 1022.4 |
| 20260509101715 | 64 | 292 | 4.0 | 8.0 | 0.00 | 0.00 | 0.00 | 47 | 1022.4 |
| 20260509101528 | 64 | 158 | 3.0 | 8.0 | 0.00 | 0.00 | 0.00 | 48 | 1022.4 |
| 20260509101330 | 64 | 68 | 2.0 | 8.0 | 0.00 | 0.00 | 0.00 | 47 | 1022.3 |
| 20260509101147 | 64 | 68 | 2.0 | 5.0 | 0.00 | 0.00 | 0.00 | 45 | 1022.4 |
| 20260509101005 | 64 | 90 | 2.0 | 5.0 | 0.00 | 0.00 | 0.00 | 44 | 1022.3 |
| 20260509100820 | 64 | 180 | 1.0 | 3.0 | 0.00 | 0.00 | 0.00 | 43 | 1022.4 |
| 20260509100645 | 64 | 158 | 1.0 | 2.0 | 0.00 | 0.00 | 0.00 | 45 | 1022.4 |
| 20260509100459 | 63 | 202 | 1.0 | 3.0 | 0.00 | 0.00 | 0.00 | 46 | 1022.4 |
| 20260509100315 | 63 | 68 | 2.0 | 4.0 | 0.00 | 0.00 | 0.00 | 46 | 1022.4 |
| 20260509100120 | 63 | 68 | 3.0 | 4.0 | 0.00 | 0.00 | 0.00 | 45 | 1022.5 |
| 20260509095957 | 63 | 68 | 3.0 | 5.0 | 0.00 | 0.00 | 0.00 | 44 | 1022.5 |
| 20260509095922 | 63 | 68 | 2.0 | 4.0 | 0.00 | 0.00 | 0.00 | 44 | 1022.4 |
| 20260509095730 | 62 | 158 | 3.0 | 5.0 | 0.00 | 0.00 | 0.00 | 45 | 1022.5 |
| 20260509095535 | 62 | 248 | 3.0 | 6.0 | 0.00 | 0.00 | 0.00 | 46 | 1022.4 |
| 20260509095352 | 63 | 292 | 3.0 | 6.0 | 0.00 | 0.00 | 0.00 | 45 | 1022.5 |
| 20260509095215 | 63 | 248 | 2.0 | 6.0 | 0.00 | 0.00 | 0.00 | 44 | 1022.4 |
| 20260509095025 | 63 | 225 | 2.0 | 4.0 | 0.00 | 0.00 | 0.00 | 42 | 1022.5 |
| 20260509094830 | 63 | 315 | 2.0 | 5.0 | 0.00 | 0.00 | 0.00 | 41 | 1022.5 |
| 20260509094630 | 63 | 45 | 2.0 | 5.0 | 0.00 | 0.00 | 0.00 | 43 | 1022.5 |
| 20260509094440 | 63 | 270 | 2.0 | 5.0 | 0.00 | 0.00 | 0.00 | 45 | 1022.6 |
| 20260509094417 | 63 | 270 | 2.0 | 5.0 | 0.00 | 0.00 | 0.00 | 44 | 1022.6 |
| 20260509094305 | 63 | 292 | 2.0 | 3.0 | 0.00 | 0.00 | 0.00 | 45 | 1022.6 |
| 20260509094119 | 63 | 68 | 2.0 | 3.0 | 0.00 | 0.00 | 0.00 | 43 | 1022.5 |
| 20260509093937 | 62 | 68 | 2.0 | 5.0 | 0.00 | 0.00 | 0.00 | 45 | 1022.6 |
| 20260509093740 | 62 | 22 | 2.0 | 3.0 | 0.00 | 0.00 | 0.00 | 47 | 1022.6 |
| 20260509093558 | 62 | 45 | 3.0 | 5.0 | 0.00 | 0.00 | 0.00 | 51 | 1022.5 |
| 20260509093417 | 62 | 45 | 4.0 | 5.0 | 0.00 | 0.00 | 0.00 | 51 | 1022.6 |
| 20260509093235 | 63 | 68 | 4.0 | 5.0 | 0.00 | 0.00 | 0.00 | 51 | 1022.6 |
| 20260509093035 | 63 | 68 | 4.0 | 7.0 | 0.00 | 0.00 | 0.00 | 51 | 1022.6 |
| 20260509092838 | 62 | 68 | 4.0 | 7.0 | 0.00 | 0.00 | 0.00 | 51 | 1022.6 |
| 20260509092647 | 62 | 45 | 4.0 | 7.0 | 0.00 | 0.00 | 0.00 | 51 | 1022.6 |
| 20260509092455 | 62 | 112 | 3.0 | 5.0 | 0.00 | 0.00 | 0.00 | 49 | 1022.6 |
| 20260509092306 | 62 | 68 | 4.0 | 5.0 | 0.00 | 0.00 | 0.00 | 53 | 1022.7 |
| 20260509092125 | 62 | 90 | 3.0 | 6.0 | 0.00 | 0.00 | 0.00 | 48 | 1022.6 |
| 20260509091925 | 62 | 45 | 3.0 | 6.0 | 0.00 | 0.00 | 0.00 | 51 | 1022.7 |
| 20260509091742 | 62 | 68 | 3.0 | 6.0 | 0.00 | 0.00 | 0.00 | 55 | 1022.6 |
| 20260509091548 | 62 | 68 | 3.0 | 8.0 | 0.00 | 0.00 | 0.00 | 56 | 1022.7 |
| 20260509091352 | 62 | 90 | 3.0 | 8.0 | 0.00 | 0.00 | 0.00 | 53 | 1022.7 |
| 20260509091212 | 61 | 112 | 3.0 | 4.0 | 0.00 | 0.00 | 0.00 | 53 | 1022.7 |
| 20260509091012 | 61 | 90 | 4.0 | 5.0 | 0.00 | 0.00 | 0.00 | 53 | 1022.7 |
| 20260509090840 | 61 | 45 | 4.0 | 7.0 | 0.00 | 0.00 | 0.00 | 52 | 1022.7 |
| 20260509090656 | 61 | 45 | 4.0 | 7.0 | 0.00 | 0.00 | 0.00 | 54 | 1022.7 |
| 20260509090512 | 61 | 68 | 4.0 | 7.0 | 0.00 | 0.00 | 0.00 | 55 | 1022.7 |
| 20260509090311 | 61 | 68 | 4.0 | 6.0 | 0.00 | 0.00 | 0.00 | 55 | 1022.7 |
| 20260509090125 | 61 | 45 | 4.0 | 6.0 | 0.00 | 0.00 | 0.00 | 54 | 1022.7 |
| 20260509085925 | 61 | 68 | 3.0 | 7.0 | 0.00 | 0.00 | 0.00 | 56 | 1022.7 |
| 20260509085732 | 60 | 68 | 3.0 | 9.0 | 0.00 | 0.00 | 0.00 | 58 | 1022.6 |
| 20260509085535 | 60 | 68 | 2.0 | 5.0 | 0.00 | 0.00 | 0.00 | 57 | 1022.8 |
| 20260509085342 | 60 | 248 | 2.0 | 5.0 | 0.00 | 0.00 | 0.00 | 57 | 1022.7 |
| 20260509085147 | 60 | 45 | 2.0 | 5.0 | 0.00 | 0.00 | 0.00 | 58 | 1022.7 |
| 20260509085005 | 59 | 68 | 2.0 | 5.0 | 0.00 | 0.00 | 0.00 | 59 | 1022.7 |
| 20260509084805 | 59 | 90 | 3.0 | 5.0 | 0.00 | 0.00 | 0.00 | 61 | 1022.7 |
| 20260509084605 | 58 | 68 | 3.0 | 5.0 | 0.00 | 0.00 | 0.00 | 60 | 1022.7 |
| 20260509084420 | 58 | 90 | 3.0 | 5.0 | 0.00 | 0.00 | 0.00 | 63 | 1022.7 |
| 20260509084239 | 57 | 68 | 4.0 | 5.0 | 0.00 | 0.00 | 0.00 | 63 | 1022.8 |
| 20260509084040 | 57 | 68 | 5.0 | 7.0 | 0.00 | 0.00 | 0.00 | 65 | 1022.7 |
| 20260509083844 | 57 | 112 | 5.0 | 7.0 | 0.00 | 0.00 | 0.00 | 66 | 1022.7 |
| 20260509083652 | 57 | 90 | 5.0 | 7.0 | 0.00 | 0.00 | 0.00 | 66 | 1022.7 |
| 20260509083617 | 57 | 68 | 6.0 | 8.0 | 0.00 | 0.00 | 0.00 | 66 | 1022.8 |
| 20260509083455 | 57 | 90 | 6.0 | 8.0 | 0.00 | 0.00 | 0.00 | 67 | 1022.8 |
| 20260509083308 | 58 | 90 | 5.0 | 8.0 | 0.00 | 0.00 | 0.00 | 67 | 1022.7 |
| 20260509083130 | 58 | 68 | 5.0 | 8.0 | 0.00 | 0.00 | 0.00 | 66 | 1022.8 |
| 20260509082945 | 58 | 22 | 4.0 | 9.0 | 0.00 | 0.00 | 0.00 | 70 | 1022.8 |
| 20260509082750 | 58 | 68 | 4.0 | 9.0 | 0.00 | 0.00 | 0.00 | 67 | 1022.8 |
| 20260509082610 | 58 | 68 | 4.0 | 7.0 | 0.00 | 0.00 | 0.00 | 64 | 1022.8 |
| 20260509082415 | 58 | 45 | 4.0 | 6.0 | 0.00 | 0.00 | 0.00 | 64 | 1022.8 |
| 20260509082225 | 58 | 45 | 4.0 | 6.0 | 0.00 | 0.00 | 0.00 | 65 | 1022.8 |
| 20260509082035 | 58 | 68 | 4.0 | 6.0 | 0.00 | 0.00 | 0.00 | 63 | 1022.8 |
| 20260509081843 | 58 | 22 | 4.0 | 5.0 | 0.00 | 0.00 | 0.00 | 63 | 1022.8 |
| 20260509081731 | 58 | 90 | 4.0 | 6.0 | 0.00 | 0.00 | 0.00 | 64 | 1022.7 |
| 20260509081643 | 58 | 45 | 4.0 | 6.0 | 0.00 | 0.00 | 0.00 | 64 | 1022.7 |
| 20260509081507 | 58 | 45 | 4.0 | 7.0 | 0.00 | 0.00 | 0.00 | 65 | 1022.8 |
| 20260509081325 | 58 | 68 | 3.0 | 7.0 | 0.00 | 0.00 | 0.00 | 64 | 1022.8 |
| 20260509081125 | 58 | 0 | 3.0 | 7.0 | 0.00 | 0.00 | 0.00 | 63 | 1022.8 |
| 20260509080945 | 57 | 45 | 3.0 | 6.0 | 0.00 | 0.00 | 0.00 | 64 | 1022.8 |
| 20260509080745 | 57 | 45 | 4.0 | 6.0 | 0.00 | 0.00 | 0.00 | 62 | 1022.8 |
| 20260509080545 | 57 | 68 | 4.0 | 6.0 | 0.00 | 0.00 | 0.00 | 65 | 1022.8 |
| 20260509080350 | 56 | 68 | 4.0 | 6.0 | 0.00 | 0.00 | 0.00 | 67 | 1022.9 |
| 20260509080211 | 56 | 68 | 4.0 | 6.0 | 0.00 | 0.00 | 0.00 | 67 | 1022.8 |
| 20260509080032 | 56 | 68 | 4.0 | 5.0 | 0.00 | 0.00 | 0.00 | 65 | 1022.7 |
| 20260509075840 | 56 | 45 | 4.0 | 5.0 | 0.00 | 0.00 | 0.00 | 65 | 1022.8 |
| 20260509075652 | 56 | 68 | 3.0 | 6.0 | 0.00 | 0.00 | 0.00 | 65 | 1022.7 |
| 20260509075502 | 56 | 68 | 4.0 | 6.0 | 0.00 | 0.00 | 0.00 | 67 | 1022.7 |
| 20260509075325 | 56 | 22 | 4.0 | 6.0 | 0.00 | 0.00 | 0.00 | 68 | 1022.7 |
| 20260509075132 | 56 | 68 | 3.0 | 6.0 | 0.00 | 0.00 | 0.00 | 67 | 1022.7 |
| 20260509074939 | 56 | 68 | 3.0 | 6.0 | 0.00 | 0.00 | 0.00 | 70 | 1022.7 |
| 20260509074751 | 56 | 45 | 3.0 | 6.0 | 0.00 | 0.00 | 0.00 | 70 | 1022.7 |
| 20260509074612 | 56 | 68 | 3.0 | 4.0 | 0.00 | 0.00 | 0.00 | 68 | 1022.7 |
| 20260509074434 | 55 | 68 | 3.0 | 4.0 | 0.00 | 0.00 | 0.00 | 68 | 1022.7 |
| 20260509074321 | 55 | 68 | 3.0 | 6.0 | 0.00 | 0.00 | 0.00 | 67 | 1022.7 |
| 20260509074250 | 55 | 68 | 3.0 | 6.0 | 0.00 | 0.00 | 0.00 | 68 | 1022.7 |
| 20260509074111 | 55 | 68 | 2.0 | 6.0 | 0.00 | 0.00 | 0.00 | 68 | 1022.7 |
| 20260509073906 | 55 | 68 | 2.0 | 5.0 | 0.00 | 0.00 | 0.00 | 68 | 1022.7 |
| 20260509073728 | 55 | 45 | 2.0 | 4.0 | 0.00 | 0.00 | 0.00 | 67 | 1022.7 |
| 20260509073529 | 55 | 45 | 2.0 | 3.0 | 0.00 | 0.00 | 0.00 | 69 | 1022.7 |
| 20260509073350 | 55 | 45 | 1.0 | 2.0 | 0.00 | 0.00 | 0.00 | 69 | 1022.7 |
| 20260509073212 | 54 | 90 | 1.0 | 5.0 | 0.00 | 0.00 | 0.00 | 70 | 1022.8 |
| 20260509073020 | 54 | 45 | 1.0 | 5.0 | 0.00 | 0.00 | 0.00 | 70 | 1022.7 |
| 20260509072825 | 54 | 68 | 2.0 | 5.0 | 0.00 | 0.00 | 0.00 | 69 | 1022.7 |
| 20260509072639 | 54 | 68 | 1.0 | 5.0 | 0.00 | 0.00 | 0.00 | 69 | 1022.7 |
| 20260509072445 | 54 | 68 | 1.0 | 2.0 | 0.00 | 0.00 | 0.00 | 70 | 1022.7 |
| 20260509072300 | 54 | 68 | 2.0 | 2.0 | 0.00 | 0.00 | 0.00 | 71 | 1022.7 |
| 20260509072120 | 53 | 68 | 3.0 | 5.0 | 0.00 | 0.00 | 0.00 | 73 | 1022.7 |
| 20260509071940 | 54 | 68 | 3.0 | 5.0 | 0.00 | 0.00 | 0.00 | 74 | 1022.7 |
| 20260509071740 | 54 | 45 | 3.0 | 5.0 | 0.00 | 0.00 | 0.00 | 73 | 1022.7 |
| 20260509071548 | 54 | 68 | 3.0 | 5.0 | 0.00 | 0.00 | 0.00 | 74 | 1022.7 |
| 20260509071350 | 54 | 68 | 3.0 | 5.0 | 0.00 | 0.00 | 0.00 | 75 | 1022.7 |
| 20260509071210 | 54 | 68 | 2.0 | 5.0 | 0.00 | 0.00 | 0.00 | 73 | 1022.7 |
| 20260509071025 | 54 | 45 | 2.0 | 5.0 | 0.00 | 0.00 | 0.00 | 73 | 1022.6 |
| 20260509070843 | 54 | 45 | 2.0 | 5.0 | 0.00 | 0.00 | 0.00 | 74 | 1022.6 |
| 20260509070817 | 54 | 45 | 2.0 | 5.0 | 0.00 | 0.00 | 0.00 | 74 | 1022.7 |
| 20260509070646 | 53 | 22 | 1.0 | 5.0 | 0.00 | 0.00 | 0.00 | 73 | 1022.7 |
| 20260509070459 | 53 | 90 | 1.0 | 5.0 | 0.00 | 0.00 | 0.00 | 73 | 1022.6 |
| 20260509070300 | 53 | 90 | 1.0 | 5.0 | 0.00 | 0.00 | 0.00 | 74 | 1022.7 |
| 20260509070120 | 53 | 90 | 1.0 | 5.0 | 0.00 | 0.00 | 0.00 | 74 | 1022.6 |
| 20260509065932 | 53 | 90 | 1.0 | 3.0 | 0.00 | 0.00 | 0.00 | 73 | 1022.7 |
| 20260509065745 | 53 | 45 | 1.0 | 2.0 | 0.00 | 0.00 | 0.00 | 74 | 1022.7 |
| 20260509065550 | 53 | 45 | 1.0 | 2.0 | 0.00 | 0.00 | 0.00 | 74 | 1022.6 |
| 20260509065410 | 53 | 45 | 1.0 | 2.0 | 0.00 | 0.00 | 0.00 | 75 | 1022.6 |
| 20260509065259 | 53 | 45 | 1.0 | 2.0 | 0.00 | 0.00 | 0.00 | 75 | 1022.6 |
| 20260509065210 | 53 | 45 | 1.0 | 3.0 | 0.00 | 0.00 | 0.00 | 75 | 1022.6 |
| 20260509065030 | 53 | 45 | 1.0 | 3.0 | 0.00 | 0.00 | 0.00 | 75 | 1022.6 |
| 20260509064852 | 52 | 45 | 1.0 | 3.0 | 0.00 | 0.00 | 0.00 | 76 | 1022.6 |
| 20260509064700 | 52 | 45 | 1.0 | 2.0 | 0.00 | 0.00 | 0.00 | 75 | 1022.6 |
| 20260509064515 | 52 | 45 | 1.0 | 2.0 | 0.00 | 0.00 | 0.00 | 76 | 1022.6 |
| 20260509064325 | 52 | 45 | 1.0 | 2.0 | 0.00 | 0.00 | 0.00 | 77 | 1022.6 |
| 20260509064130 | 52 | 45 | 1.0 | 2.0 | 0.00 | 0.00 | 0.00 | 77 | 1022.6 |
| 20260509063945 | 51 | 45 | 1.0 | 2.0 | 0.00 | 0.00 | 0.00 | 77 | 1022.6 |
| 20260509063805 | 51 | 45 | 1.0 | 3.0 | 0.00 | 0.00 | 0.00 | 78 | 1022.6 |
| 20260509063617 | 51 | 45 | 1.0 | 3.0 | 0.00 | 0.00 | 0.00 | 78 | 1022.6 |
| 20260509063532 | 51 | 45 | 2.0 | 3.0 | 0.00 | 0.00 | 0.00 | 78 | 1022.6 |
| 20260509063432 | 51 | 45 | 2.0 | 3.0 | 0.00 | 0.00 | 0.00 | 78 | 1022.7 |
| 20260509063232 | 51 | 45 | 1.0 | 5.0 | 0.00 | 0.00 | 0.00 | 79 | 1022.6 |
| 20260509063040 | 51 | 45 | 2.0 | 5.0 | 0.00 | 0.00 | 0.00 | 80 | 1022.6 |
| 20260509062855 | 51 | 45 | 2.0 | 5.0 | 0.00 | 0.00 | 0.00 | 80 | 1022.6 |
| 20260509062702 | 51 | 22 | 2.0 | 3.0 | 0.00 | 0.00 | 0.00 | 80 | 1022.6 |
| 20260509062515 | 51 | 338 | 2.0 | 3.0 | 0.00 | 0.00 | 0.00 | 80 | 1022.6 |
| 20260509062335 | 51 | 338 | 2.0 | 3.0 | 0.00 | 0.00 | 0.00 | 81 | 1022.5 |
| 20260509062159 | 51 | 338 | 2.0 | 3.0 | 0.00 | 0.00 | 0.00 | 80 | 1022.5 |
| 20260509061959 | 51 | 22 | 2.0 | 4.0 | 0.00 | 0.00 | 0.00 | 81 | 1022.5 |
| 20260509061820 | 51 | 22 | 2.0 | 4.0 | 0.00 | 0.00 | 0.00 | 80 | 1022.5 |
| 20260509061741 | 50 | 22 | 1.0 | 4.0 | 0.00 | 0.00 | 0.00 | 80 | 1022.5 |
| 20260509061635 | 51 | 22 | 2.0 | 4.0 | 0.00 | 0.00 | 0.00 | 80 | 1022.6 |
| 20260509061455 | 51 | 22 | 2.0 | 4.0 | 0.00 | 0.00 | 0.00 | 80 | 1022.6 |
| 20260509061300 | 50 | 22 | 1.0 | 3.0 | 0.00 | 0.00 | 0.00 | 80 | 1022.6 |
| 20260509061112 | 50 | 22 | 1.0 | 3.0 | 0.00 | 0.00 | 0.00 | 80 | 1022.5 |
| 20260509060914 | 50 | 0 | 1.0 | 2.0 | 0.00 | 0.00 | 0.00 | 80 | 1022.5 |
| 20260509060730 | 50 | 0 | 0.0 | 2.0 | 0.00 | 0.00 | 0.00 | 81 | 1022.5 |
| 20260509060545 | 50 | 0 | 0.0 | 2.0 | 0.00 | 0.00 | 0.00 | 81 | 1022.5 |
| 20260509060400 | 50 | 0 | 0.0 | 2.0 | 0.00 | 0.00 | 0.00 | 81 | 1022.5 |
| 20260509060212 | 50 | 0 | 0.0 | 2.0 | 0.00 | 0.00 | 0.00 | 81 | 1022.5 |
| 20260509060025 | 50 | 0 | 0.0 | 1.0 | 0.00 | 0.00 | 0.00 | 81 | 1022.5 |
| 20260509055825 | 50 | 0 | 0.0 | 2.0 | 0.00 | 0.00 | 0.00 | 82 | 1022.4 |
| 20260509055630 | 50 | 0 | 0.0 | 2.0 | 0.00 | 0.00 | 0.00 | 82 | 1022.5 |
| 20260509055443 | 50 | 0 | 0.0 | 2.0 | 0.00 | 0.00 | 0.00 | 82 | 1022.4 |
| 20260509055250 | 49 | 0 | 0.0 | 2.0 | 0.00 | 0.00 | 0.00 | 82 | 1022.5 |
| 20260509055100 | 49 | 22 | 0.0 | 2.0 | 0.00 | 0.00 | 0.00 | 82 | 1022.4 |
| 20260509054915 | 49 | 22 | 1.0 | 2.0 | 0.00 | 0.00 | 0.00 | 83 | 1022.5 |
| 20260509054730 | 49 | 22 | 1.0 | 2.0 | 0.00 | 0.00 | 0.00 | 82 | 1022.4 |
| 20260509054625 | 49 | 22 | 1.0 | 2.0 | 0.00 | 0.00 | 0.00 | 82 | 1022.4 |
| 20260509054532 | 49 | 22 | 1.0 | 3.0 | 0.00 | 0.00 | 0.00 | 83 | 1022.5 |
| 20260509054345 | 49 | 22 | 1.0 | 3.0 | 0.00 | 0.00 | 0.00 | 82 | 1022.5 |
| 20260509054159 | 49 | 22 | 1.0 | 4.0 | 0.00 | 0.00 | 0.00 | 83 | 1022.4 |
| 20260509054015 | 49 | 22 | 1.0 | 4.0 | 0.00 | 0.00 | 0.00 | 82 | 1022.5 |
| 20260509053830 | 49 | 22 | 0.0 | 3.0 | 0.00 | 0.00 | 0.00 | 83 | 1022.4 |
| 20260509053644 | 49 | 22 | 0.0 | 0.0 | 0.00 | 0.00 | 0.00 | 83 | 1022.4 |
| 20260509053501 | 49 | 22 | 0.0 | 2.0 | 0.00 | 0.00 | 0.00 | 83 | 1022.4 |
| 20260509053312 | 49 | 22 | 0.0 | 2.0 | 0.00 | 0.00 | 0.00 | 83 | 1022.5 |
| 20260509053120 | 49 | 22 | 1.0 | 2.0 | 0.00 | 0.00 | 0.00 | 83 | 1022.4 |
| 20260509052925 | 49 | 22 | 0.0 | 4.0 | 0.00 | 0.00 | 0.00 | 84 | 1022.4 |
| 20260509052832 | 49 | 22 | 0.0 | 4.0 | 0.00 | 0.00 | 0.00 | 84 | 1022.5 |
| 20260509052730 | 49 | 22 | 0.0 | 4.0 | 0.00 | 0.00 | 0.00 | 84 | 1022.5 |
| 20260509052540 | 49 | 22 | 1.0 | 4.0 | 0.00 | 0.00 | 0.00 | 83 | 1022.4 |
| 20260509052400 | 49 | 22 | 0.0 | 2.0 | 0.00 | 0.00 | 0.00 | 84 | 1022.4 |
| 20260509052200 | 49 | 22 | 0.0 | 0.0 | 0.00 | 0.00 | 0.00 | 84 | 1022.4 |
| 20260509052001 | 49 | 22 | 0.0 | 2.0 | 0.00 | 0.00 | 0.00 | 84 | 1022.4 |
| 20260509051820 | 49 | 22 | 1.0 | 2.0 | 0.00 | 0.00 | 0.00 | 84 | 1022.4 |
| 20260509051632 | 48 | 22 | 1.0 | 2.0 | 0.00 | 0.00 | 0.00 | 84 | 1022.4 |
| 20260509051448 | 48 | 22 | 0.0 | 2.0 | 0.00 | 0.00 | 0.00 | 85 | 1022.4 |
| 20260509051250 | 48 | 22 | 1.0 | 3.0 | 0.00 | 0.00 | 0.00 | 85 | 1022.4 |
| 20260509051103 | 48 | 22 | 1.0 | 3.0 | 0.00 | 0.00 | 0.00 | 85 | 1022.5 |
| 20260509050940 | 48 | 22 | 0.0 | 3.0 | 0.00 | 0.00 | 0.00 | 84 | 1022.4 |
| 20260509050910 | 48 | 22 | 0.0 | 2.0 | 0.00 | 0.00 | 0.00 | 84 | 1022.4 |
| 20260509050719 | 48 | 22 | 0.0 | 2.0 | 0.00 | 0.00 | 0.00 | 84 | 1022.3 |
| 20260509050530 | 48 | 22 | 0.0 | 2.0 | 0.00 | 0.00 | 0.00 | 85 | 1022.4 |
| 20260509050335 | 48 | 22 | 0.0 | 1.0 | 0.00 | 0.00 | 0.00 | 85 | 1022.4 |
| 20260509050135 | 48 | 22 | 0.0 | 1.0 | 0.00 | 0.00 | 0.00 | 85 | 1022.4 |
| 20260509045952 | 48 | 22 | 0.0 | 0.0 | 0.00 | 0.00 | 0.00 | 85 | 1022.2 |
| 20260509045800 | 48 | 22 | 0.0 | 3.0 | 0.00 | 0.00 | 0.00 | 85 | 1022.2 |
| 20260509045622 | 48 | 22 | 0.0 | 3.0 | 0.00 | 0.00 | 0.00 | 85 | 1022.3 |
| 20260509045430 | 48 | 22 | 0.0 | 3.0 | 0.00 | 0.00 | 0.00 | 85 | 1022.3 |
| 20260509045236 | 48 | 22 | 0.0 | 0.0 | 0.00 | 0.00 | 0.00 | 85 | 1022.3 |
| 20260509045100 | 48 | 22 | 0.0 | 0.0 | 0.00 | 0.00 | 0.00 | 85 | 1022.3 |
| 20260509044910 | 48 | 22 | 0.0 | 2.0 | 0.00 | 0.00 | 0.00 | 85 | 1022.3 |
| 20260509044712 | 48 | 22 | 0.0 | 2.0 | 0.00 | 0.00 | 0.00 | 85 | 1022.3 |
| 20260509044530 | 48 | 22 | 0.0 | 2.0 | 0.00 | 0.00 | 0.00 | 85 | 1022.3 |
| 20260509044352 | 48 | 22 | 0.0 | 0.0 | 0.00 | 0.00 | 0.00 | 85 | 1022.3 |
| 20260509044212 | 48 | 22 | 1.0 | 0.0 | 0.00 | 0.00 | 0.00 | 85 | 1022.3 |
| 20260509044020 | 48 | 22 | 1.0 | 2.0 | 0.00 | 0.00 | 0.00 | 85 | 1022.2 |
| 20260509043832 | 48 | 22 | 1.0 | 3.0 | 0.00 | 0.00 | 0.00 | 85 | 1022.2 |
| 20260509043655 | 48 | 22 | 1.0 | 3.0 | 0.00 | 0.00 | 0.00 | 85 | 1022.2 |
| 20260509043510 | 48 | 22 | 1.0 | 3.0 | 0.00 | 0.00 | 0.00 | 85 | 1022.1 |
| 20260509043356 | 48 | 22 | 1.0 | 2.0 | 0.00 | 0.00 | 0.00 | 85 | 1022.2 |
| 20260509043328 | 48 | 22 | 1.0 | 2.0 | 0.00 | 0.00 | 0.00 | 85 | 1022.3 |
| 20260509043147 | 48 | 22 | 1.0 | 2.0 | 0.00 | 0.00 | 0.00 | 85 | 1022.2 |
| 20260509043005 | 48 | 22 | 1.0 | 4.0 | 0.00 | 0.00 | 0.00 | 85 | 1022.1 |
| 20260509042818 | 48 | 22 | 1.0 | 4.0 | 0.00 | 0.00 | 0.00 | 85 | 1022.1 |
| 20260509042625 | 47 | 22 | 1.0 | 2.0 | 0.00 | 0.00 | 0.00 | 85 | 1022.1 |
| 20260509042430 | 47 | 22 | 1.0 | 2.0 | 0.00 | 0.00 | 0.00 | 85 | 1022.1 |
| 20260509042246 | 47 | 22 | 1.0 | 2.0 | 0.00 | 0.00 | 0.00 | 85 | 1022.1 |
| 20260509042050 | 47 | 22 | 1.0 | 2.0 | 0.00 | 0.00 | 0.00 | 85 | 1022.1 |
| 20260509041910 | 47 | 22 | 1.0 | 4.0 | 0.00 | 0.00 | 0.00 | 85 | 1022.0 |
| 20260509041732 | 47 | 22 | 1.0 | 4.0 | 0.00 | 0.00 | 0.00 | 85 | 1022.1 |
| 20260509041542 | 47 | 22 | 1.0 | 4.0 | 0.00 | 0.00 | 0.00 | 85 | 1022.1 |
| 20260509041405 | 47 | 22 | 1.0 | 3.0 | 0.00 | 0.00 | 0.00 | 85 | 1022.0 |
| 20260509041220 | 47 | 22 | 1.0 | 3.0 | 0.00 | 0.00 | 0.00 | 85 | 1022.0 |
| 20260509041017 | 47 | 22 | 1.0 | 3.0 | 0.00 | 0.00 | 0.00 | 85 | 1022.0 |
| 20260509040820 | 47 | 22 | 1.0 | 2.0 | 0.00 | 0.00 | 0.00 | 85 | 1022.1 |
| 20260509040622 | 47 | 22 | 2.0 | 2.0 | 0.00 | 0.00 | 0.00 | 85 | 1022.1 |
| 20260509040432 | 47 | 22 | 1.0 | 4.0 | 0.00 | 0.00 | 0.00 | 85 | 1022.0 |
| 20260509040249 | 47 | 45 | 2.0 | 4.0 | 0.00 | 0.00 | 0.00 | 85 | 1022.1 |
| 20260509040110 | 47 | 45 | 2.0 | 4.0 | 0.00 | 0.00 | 0.00 | 85 | 1022.1 |
| 20260509040026 | 47 | 45 | 2.0 | 4.0 | 0.00 | 0.00 | 0.00 | 85 | 1022.1 |
| 20260509035910 | 47 | 45 | 1.0 | 4.0 | 0.00 | 0.00 | 0.00 | 85 | 1022.1 |
| 20260509035728 | 47 | 45 | 1.0 | 4.0 | 0.00 | 0.00 | 0.00 | 85 | 1022.1 |
| 20260509035532 | 47 | 45 | 1.0 | 3.0 | 0.00 | 0.00 | 0.00 | 85 | 1022.1 |
| 20260509035354 | 47 | 45 | 1.0 | 3.0 | 0.00 | 0.00 | 0.00 | 85 | 1022.1 |
| 20260509035155 | 47 | 45 | 1.0 | 3.0 | 0.00 | 0.00 | 0.00 | 85 | 1022.1 |
| 20260509035012 | 47 | 45 | 1.0 | 3.0 | 0.00 | 0.00 | 0.00 | 85 | 1022.1 |
| 20260509034820 | 47 | 45 | 1.0 | 3.0 | 0.00 | 0.00 | 0.00 | 85 | 1022.1 |
| 20260509034637 | 47 | 45 | 1.0 | 2.0 | 0.00 | 0.00 | 0.00 | 85 | 1022.1 |
| 20260509034441 | 47 | 45 | 1.0 | 2.0 | 0.00 | 0.00 | 0.00 | 85 | 1022.1 |
| 20260509034255 | 47 | 0 | 0.0 | 2.0 | 0.00 | 0.00 | 0.00 | 85 | 1022.1 |
| 20260509034111 | 47 | 0 | 0.0 | 2.0 | 0.00 | 0.00 | 0.00 | 85 | 1022.1 |
| 20260509033925 | 47 | 0 | 1.0 | 2.0 | 0.00 | 0.00 | 0.00 | 85 | 1022.1 |
| 20260509033745 | 47 | 0 | 1.0 | 2.0 | 0.00 | 0.00 | 0.00 | 85 | 1022.1 |
| 20260509033555 | 47 | 0 | 1.0 | 3.0 | 0.00 | 0.00 | 0.00 | 85 | 1022.1 |
| 20260509033415 | 47 | 0 | 1.0 | 3.0 | 0.00 | 0.00 | 0.00 | 85 | 1022.1 |
| 20260509033217 | 47 | 0 | 1.0 | 3.0 | 0.00 | 0.00 | 0.00 | 85 | 1022.2 |
| 20260509033030 | 47 | 0 | 1.0 | 3.0 | 0.00 | 0.00 | 0.00 | 85 | 1022.1 |
| 20260509032937 | 47 | 0 | 1.0 | 3.0 | 0.00 | 0.00 | 0.00 | 85 | 1022.1 |
| 20260509032840 | 47 | 0 | 1.0 | 3.0 | 0.00 | 0.00 | 0.00 | 85 | 1022.1 |
| 20260509032641 | 47 | 0 | 1.0 | 3.0 | 0.00 | 0.00 | 0.00 | 85 | 1022.1 |
| 20260509032503 | 47 | 0 | 1.0 | 2.0 | 0.00 | 0.00 | 0.00 | 85 | 1022.1 |
| 20260509032310 | 47 | 0 | 1.0 | 2.0 | 0.00 | 0.00 | 0.00 | 85 | 1022.1 |
| 20260509032120 | 47 | 0 | 1.0 | 2.0 | 0.00 | 0.00 | 0.00 | 85 | 1022.1 |
| 20260509031920 | 48 | 0 | 1.0 | 2.0 | 0.00 | 0.00 | 0.00 | 85 | 1022.1 |
| 20260509031737 | 48 | 0 | 1.0 | 2.0 | 0.00 | 0.00 | 0.00 | 85 | 1022.1 |
| 20260509031600 | 48 | 0 | 1.0 | 2.0 | 0.00 | 0.00 | 0.00 | 85 | 1022.1 |
| 20260509031416 | 48 | 0 | 1.0 | 2.0 | 0.00 | 0.00 | 0.00 | 85 | 1022.0 |
| 20260509031235 | 48 | 0 | 1.0 | 2.0 | 0.00 | 0.00 | 0.00 | 86 | 1022.1 |
| 20260509031119 | 48 | 22 | 0.0 | 2.0 | 0.00 | 0.00 | 0.00 | 86 | 1022.1 |
| 20260509031100 | 48 | 45 | 0.0 | 1.0 | 0.00 | 0.00 | 0.00 | 86 | 1022.1 |
| 20260509030913 | 48 | 112 | 0.0 | 1.0 | 0.00 | 0.00 | 0.00 | 86 | 1022.1 |
| 20260509030723 | 48 | 112 | 0.0 | 2.0 | 0.00 | 0.00 | 0.00 | 86 | 1022.0 |
| 20260509030548 | 48 | 112 | 0.0 | 2.0 | 0.00 | 0.00 | 0.00 | 86 | 1022.0 |
| 20260509030410 | 48 | 112 | 0.0 | 2.0 | 0.00 | 0.00 | 0.00 | 86 | 1022.0 |
| 20260509030207 | 48 | 112 | 0.0 | 2.0 | 0.00 | 0.00 | 0.00 | 86 | 1022.0 |
| 20260509030032 | 48 | 0 | 0.0 | 2.0 | 0.00 | 0.00 | 0.00 | 86 | 1022.1 |
| 20260509025847 | 48 | 0 | 0.0 | 0.0 | 0.00 | 0.00 | 0.00 | 85 | 1022.1 |
| 20260509025707 | 48 | 0 | 0.0 | 0.0 | 0.00 | 0.00 | 0.00 | 85 | 1022.1 |
| 20260509025530 | 48 | 0 | 0.0 | 0.0 | 0.00 | 0.00 | 0.00 | 85 | 1022.1 |
| 20260509025433 | 48 | 0 | 0.0 | 0.0 | 0.00 | 0.00 | 0.00 | 85 | 1022.1 |
| 20260509025332 | 48 | 0 | 0.0 | 0.0 | 0.00 | 0.00 | 0.00 | 85 | 1022.1 |
| 20260509025150 | 48 | 0 | 0.0 | 0.0 | 0.00 | 0.00 | 0.00 | 85 | 1022.1 |
| 20260509024955 | 48 | 0 | 0.0 | 0.0 | 0.00 | 0.00 | 0.00 | 85 | 1022.1 |
| 20260509024755 | 48 | 112 | 0.0 | 0.0 | 0.00 | 0.00 | 0.00 | 85 | 1022.1 |
| 20260509024605 | 48 | 112 | 0.0 | 0.0 | 0.00 | 0.00 | 0.00 | 85 | 1022.1 |
| 20260509024422 | 48 | 112 | 0.0 | 2.0 | 0.00 | 0.00 | 0.00 | 85 | 1022.1 |
| 20260509024235 | 47 | 112 | 0.0 | 2.0 | 0.00 | 0.00 | 0.00 | 85 | 1022.1 |
| 20260509024050 | 47 | 292 | 0.0 | 2.0 | 0.00 | 0.00 | 0.00 | 85 | 1022.1 |
| 20260509023905 | 47 | 292 | 0.0 | 2.0 | 0.00 | 0.00 | 0.00 | 85 | 1022.0 |
| 20260509023733 | 47 | 292 | 0.0 | 2.0 | 0.00 | 0.00 | 0.00 | 86 | 1022.1 |
| 20260509023720 | 47 | 292 | 0.0 | 2.0 | 0.00 | 0.00 | 0.00 | 85 | 1022.1 |
| 20260509023530 | 47 | 292 | 0.0 | 2.0 | 0.00 | 0.00 | 0.00 | 85 | 1022.1 |
| 20260509023345 | 47 | 292 | 0.0 | 2.0 | 0.00 | 0.00 | 0.00 | 85 | 1022.1 |
| 20260509023155 | 47 | 0 | 0.0 | 2.0 | 0.00 | 0.00 | 0.00 | 85 | 1022.1 |
| 20260509023004 | 47 | 0 | 0.0 | 2.0 | 0.00 | 0.00 | 0.00 | 85 | 1022.1 |
| 20260509022825 | 47 | 0 | 0.0 | 2.0 | 0.00 | 0.00 | 0.00 | 85 | 1022.1 |
| 20260509022640 | 47 | 0 | 0.0 | 0.0 | 0.00 | 0.00 | 0.00 | 85 | 1022.1 |
| 20260509022446 | 47 | 0 | 0.0 | 0.0 | 0.00 | 0.00 | 0.00 | 85 | 1022.0 |
| 20260509022306 | 47 | 0 | 0.0 | 0.0 | 0.00 | 0.00 | 0.00 | 85 | 1022.1 |
| 20260509022125 | 48 | 0 | 0.0 | 0.0 | 0.00 | 0.00 | 0.00 | 84 | 1022.0 |
| 20260509021940 | 48 | 0 | 0.0 | 0.0 | 0.00 | 0.00 | 0.00 | 84 | 1022.1 |
| 20260509021750 | 48 | 0 | 0.0 | 0.0 | 0.00 | 0.00 | 0.00 | 84 | 1022.1 |
| 20260509021559 | 48 | 45 | 0.0 | 0.0 | 0.00 | 0.00 | 0.00 | 84 | 1022.0 |
| 20260509021411 | 48 | 45 | 0.0 | 1.0 | 0.00 | 0.00 | 0.00 | 84 | 1022.1 |
| 20260509021235 | 48 | 45 | 0.0 | 2.0 | 0.00 | 0.00 | 0.00 | 84 | 1022.0 |
| 20260509021050 | 48 | 45 | 0.0 | 2.0 | 0.00 | 0.00 | 0.00 | 83 | 1022.1 |
| 20260509020900 | 48 | 45 | 1.0 | 2.0 | 0.00 | 0.00 | 0.00 | 83 | 1022.1 |
| 20260509020715 | 48 | 45 | 1.0 | 2.0 | 0.00 | 0.00 | 0.00 | 83 | 1022.0 |
| 20260509020525 | 48 | 45 | 1.0 | 2.0 | 0.00 | 0.00 | 0.00 | 83 | 1022.1 |
| 20260509020340 | 48 | 68 | 1.0 | 2.0 | 0.00 | 0.00 | 0.00 | 83 | 1022.0 |
| 20260509020237 | 48 | 68 | 1.0 | 2.0 | 0.00 | 0.00 | 0.00 | 83 | 1022.1 |
| 20260509020150 | 48 | 68 | 1.0 | 2.0 | 0.00 | 0.00 | 0.00 | 83 | 1022.1 |
| 20260509020012 | 48 | 68 | 1.0 | 2.0 | 0.00 | 0.00 | 0.00 | 83 | 1022.1 |
| 20260509015825 | 48 | 68 | 2.0 | 3.0 | 0.00 | 0.00 | 0.00 | 83 | 1022.1 |
| 20260509015640 | 48 | 68 | 1.0 | 3.0 | 0.00 | 0.00 | 0.00 | 82 | 1022.1 |
| 20260509015445 | 48 | 68 | 1.0 | 3.0 | 0.00 | 0.00 | 0.00 | 83 | 1022.2 |
| 20260509015255 | 48 | 68 | 1.0 | 2.0 | 0.00 | 0.00 | 0.00 | 83 | 1022.2 |
| 20260509015058 | 48 | 68 | 2.0 | 2.0 | 0.00 | 0.00 | 0.00 | 82 | 1022.2 |
| 20260509014912 | 48 | 68 | 1.0 | 3.0 | 0.00 | 0.00 | 0.00 | 82 | 1022.1 |
| 20260509014730 | 48 | 68 | 1.0 | 2.0 | 0.00 | 0.00 | 0.00 | 82 | 1022.1 |
| 20260509014606 | 48 | 68 | 1.0 | 2.0 | 0.00 | 0.00 | 0.00 | 82 | 1022.1 |
| 20260509014540 | 48 | 68 | 1.0 | 2.0 | 0.00 | 0.00 | 0.00 | 82 | 1022.2 |
| 20260509014349 | 48 | 22 | 1.0 | 2.0 | 0.00 | 0.00 | 0.00 | 82 | 1022.1 |
| 20260509014155 | 48 | 22 | 1.0 | 3.0 | 0.00 | 0.00 | 0.00 | 82 | 1022.1 |
| 20260509014000 | 48 | 22 | 1.0 | 3.0 | 0.00 | 0.00 | 0.00 | 82 | 1022.1 |
| 20260509013820 | 48 | 22 | 1.0 | 3.0 | 0.00 | 0.00 | 0.00 | 82 | 1022.1 |
| 20260509013625 | 48 | 22 | 1.0 | 2.0 | 0.00 | 0.00 | 0.00 | 81 | 1022.1 |
| 20260509013450 | 48 | 22 | 1.0 | 2.0 | 0.00 | 0.00 | 0.00 | 81 | 1022.2 |
| 20260509013249 | 48 | 22 | 1.0 | 2.0 | 0.00 | 0.00 | 0.00 | 82 | 1022.2 |
| 20260509013100 | 48 | 22 | 1.0 | 2.0 | 0.00 | 0.00 | 0.00 | 81 | 1022.1 |
| 20260509012910 | 48 | 22 | 1.0 | 3.0 | 0.00 | 0.00 | 0.00 | 81 | 1022.1 |
| 20260509012800 | 48 | 22 | 1.0 | 3.0 | 0.00 | 0.00 | 0.00 | 81 | 1022.1 |
| 20260509012716 | 48 | 22 | 1.0 | 3.0 | 0.00 | 0.00 | 0.00 | 81 | 1022.1 |
| 20260509012529 | 48 | 22 | 1.0 | 4.0 | 0.00 | 0.00 | 0.00 | 81 | 1022.1 |
| 20260509012337 | 48 | 22 | 1.0 | 4.0 | 0.00 | 0.00 | 0.00 | 81 | 1022.1 |
| 20260509012200 | 48 | 22 | 1.0 | 4.0 | 0.00 | 0.00 | 0.00 | 81 | 1022.1 |
| 20260509012006 | 48 | 45 | 1.0 | 3.0 | 0.00 | 0.00 | 0.00 | 81 | 1022.1 |
| 20260509011825 | 48 | 45 | 1.0 | 2.0 | 0.00 | 0.00 | 0.00 | 81 | 1022.1 |
| 20260509011630 | 48 | 45 | 1.0 | 2.0 | 0.00 | 0.00 | 0.00 | 81 | 1022.0 |
| 20260509011432 | 49 | 45 | 1.0 | 2.0 | 0.00 | 0.00 | 0.00 | 81 | 1022.1 |
| 20260509011250 | 49 | 45 | 1.0 | 2.0 | 0.00 | 0.00 | 0.00 | 81 | 1022.0 |
| 20260509011227 | 49 | 45 | 1.0 | 2.0 | 0.00 | 0.00 | 0.00 | 81 | 1022.0 |
| 20260509011100 | 49 | 45 | 2.0 | 2.0 | 0.00 | 0.00 | 0.00 | 81 | 1022.1 |
| 20260509010914 | 49 | 45 | 2.0 | 2.0 | 0.00 | 0.00 | 0.00 | 81 | 1022.0 |
| 20260509010738 | 49 | 45 | 2.0 | 4.0 | 0.00 | 0.00 | 0.00 | 81 | 1022.1 |
| 20260509010549 | 49 | 45 | 1.0 | 4.0 | 0.00 | 0.00 | 0.00 | 81 | 1022.1 |
| 20260509010350 | 49 | 45 | 1.0 | 4.0 | 0.00 | 0.00 | 0.00 | 80 | 1022.1 |
| 20260509010208 | 49 | 45 | 1.0 | 2.0 | 0.00 | 0.00 | 0.00 | 80 | 1022.0 |
| 20260509010020 | 49 | 45 | 1.0 | 3.0 | 0.00 | 0.00 | 0.00 | 80 | 1022.0 |
| 20260509005830 | 49 | 45 | 2.0 | 3.0 | 0.00 | 0.00 | 0.00 | 80 | 1022.0 |
| 20260509005640 | 49 | 45 | 2.0 | 5.0 | 0.00 | 0.00 | 0.00 | 80 | 1022.0 |
| 20260509005505 | 49 | 22 | 2.0 | 5.0 | 0.00 | 0.00 | 0.00 | 80 | 1022.0 |
| 20260509005406 | 49 | 22 | 2.0 | 5.0 | 0.00 | 0.00 | 0.00 | 80 | 1022.0 |
| 20260509005322 | 49 | 22 | 2.0 | 5.0 | 0.00 | 0.00 | 0.00 | 80 | 1022.0 |
| 20260509004800 | 49 | 68 | 1.0 | 2.0 | 0.00 | 0.00 | 0.00 | 80 | 1022.0 |
| 20260509004610 | 49 | 68 | 1.0 | 3.0 | 0.00 | 0.00 | 0.00 | 80 | 1022.0 |
| 20260509004415 | 49 | 68 | 1.0 | 3.0 | 0.00 | 0.00 | 0.00 | 80 | 1022.1 |
| 20260509004225 | 49 | 68 | 2.0 | 3.0 | 0.00 | 0.00 | 0.00 | 80 | 1022.1 |
| 20260509004039 | 49 | 90 | 2.0 | 2.0 | 0.00 | 0.00 | 0.00 | 80 | 1022.1 |
| 20260509003859 | 49 | 90 | 2.0 | 5.0 | 0.00 | 0.00 | 0.00 | 79 | 1022.1 |
| 20260509003709 | 49 | 22 | 2.0 | 5.0 | 0.00 | 0.00 | 0.00 | 80 | 1022.1 |
| 20260509003511 | 49 | 22 | 2.0 | 5.0 | 0.00 | 0.00 | 0.00 | 80 | 1022.1 |
| 20260509003329 | 49 | 22 | 2.0 | 5.0 | 0.00 | 0.00 | 0.00 | 80 | 1022.1 |
| 20260509003150 | 49 | 22 | 2.0 | 4.0 | 0.00 | 0.00 | 0.00 | 80 | 1022.1 |
| 20260509003009 | 49 | 22 | 2.0 | 4.0 | 0.00 | 0.00 | 0.00 | 80 | 1022.1 |
| 20260509002819 | 49 | 22 | 2.0 | 3.0 | 0.00 | 0.00 | 0.00 | 80 | 1022.1 |
| 20260509002629 | 49 | 22 | 2.0 | 3.0 | 0.00 | 0.00 | 0.00 | 80 | 1022.1 |
| 20260509002440 | 49 | 22 | 1.0 | 3.0 | 0.00 | 0.00 | 0.00 | 80 | 1022.1 |
| 20260509002248 | 49 | 22 | 1.0 | 3.0 | 0.00 | 0.00 | 0.00 | 80 | 1022.1 |
| 20260509002105 | 49 | 22 | 1.0 | 3.0 | 0.00 | 0.00 | 0.00 | 80 | 1022.1 |
| 20260509001924 | 49 | 22 | 1.0 | 3.0 | 0.00 | 0.00 | 0.00 | 80 | 1022.2 |
| 20260509001737 | 49 | 22 | 1.0 | 3.0 | 0.00 | 0.00 | 0.00 | 80 | 1022.2 |
| 20260509001632 | 49 | 22 | 1.0 | 3.0 | 0.00 | 0.00 | 0.00 | 80 | 1022.2 |
| 20260509001559 | 49 | 22 | 1.0 | 3.0 | 0.00 | 0.00 | 0.00 | 80 | 1022.2 |
| 20260509001405 | 49 | 22 | 2.0 | 3.0 | 0.00 | 0.00 | 0.00 | 80 | 1022.2 |
| 20260509001210 | 49 | 22 | 2.0 | 6.0 | 0.00 | 0.00 | 0.00 | 80 | 1022.2 |
| 20260509001010 | 49 | 22 | 2.0 | 6.0 | 0.00 | 0.00 | 0.00 | 80 | 1022.2 |
| 20260509000830 | 49 | 22 | 2.0 | 3.0 | 0.00 | 0.00 | 0.00 | 80 | 1022.3 |
| 20260509000630 | 49 | 22 | 1.0 | 3.0 | 0.00 | 0.00 | 0.00 | 80 | 1022.2 |
| 20260509000448 | 49 | 22 | 2.0 | 3.0 | 0.00 | 0.00 | 0.00 | 81 | 1022.3 |
| 20260509000311 | 49 | 22 | 1.0 | 3.0 | 0.00 | 0.00 | 0.00 | 81 | 1022.3 |
| 20260509000106 | 49 | 22 | 1.0 | 3.0 | 0.00 | 0.00 | 0.00 | 81 | 1022.3 |
| 20260508235938 | 49 | 22 | 1.0 | 3.0 | 0.00 | 0.00 | 0.00 | 80 | 1022.3 |
| 20260508235749 | 49 | 22 | 1.0 | 3.0 | 0.00 | 0.00 | 0.00 | 80 | 1022.3 |
| 20260508235608 | 49 | 22 | 1.0 | 2.0 | 0.00 | 0.00 | 0.00 | 80 | 1022.3 |
| 20260508235421 | 49 | 22 | 0.0 | 2.0 | 0.00 | 0.00 | 0.00 | 80 | 1022.3 |
| 20260508235245 | 49 | 22 | 1.0 | 2.0 | 0.00 | 0.00 | 0.00 | 80 | 1022.3 |
| 20260508235055 | 49 | 22 | 1.0 | 2.0 | 0.00 | 0.00 | 0.00 | 80 | 1022.3 |
| 20260508234912 | 49 | 22 | 1.0 | 2.0 | 0.00 | 0.00 | 0.00 | 80 | 1022.3 |
| 20260508234735 | 49 | 22 | 1.0 | 2.0 | 0.00 | 0.00 | 0.00 | 80 | 1022.3 |
| 20260508234535 | 49 | 22 | 1.0 | 2.0 | 0.00 | 0.00 | 0.00 | 80 | 1022.3 |
| 20260508234450 | 49 | 22 | 1.0 | 2.0 | 0.00 | 0.00 | 0.00 | 80 | 1022.3 |
| 20260508234340 | 49 | 22 | 1.0 | 2.0 | 0.00 | 0.00 | 0.00 | 80 | 1022.2 |
| 20260508234139 | 49 | 22 | 1.0 | 2.0 | 0.00 | 0.00 | 0.00 | 80 | 1022.2 |
| 20260508233947 | 49 | 22 | 1.0 | 2.0 | 0.00 | 0.00 | 0.00 | 79 | 1022.2 |
| 20260508233748 | 49 | 22 | 0.0 | 2.0 | 0.00 | 0.00 | 0.00 | 80 | 1022.2 |
| 20260508233600 | 49 | 22 | 0.0 | 1.0 | 0.00 | 0.00 | 0.00 | 80 | 1022.1 |
| 20260508233417 | 49 | 22 | 0.0 | 1.0 | 0.00 | 0.00 | 0.00 | 79 | 1022.2 |
| 20260508233222 | 49 | 22 | 0.0 | 1.0 | 0.00 | 0.00 | 0.00 | 79 | 1022.3 |
| 20260508233045 | 49 | 22 | 0.0 | 1.0 | 0.00 | 0.00 | 0.00 | 79 | 1022.3 |
| 20260508232930 | 49 | 22 | 1.0 | 1.0 | 0.00 | 0.00 | 0.00 | 79 | 1022.3 |
| 20260508232849 | 49 | 22 | 1.0 | 2.0 | 0.00 | 0.00 | 0.00 | 79 | 1022.3 |
| 20260508232651 | 49 | 22 | 1.0 | 2.0 | 0.00 | 0.00 | 0.00 | 79 | 1022.3 |
| 20260508232459 | 49 | 22 | 1.0 | 4.0 | 0.00 | 0.00 | 0.00 | 78 | 1022.2 |
| 20260508232308 | 49 | 22 | 1.0 | 4.0 | 0.00 | 0.00 | 0.00 | 78 | 1022.3 |
| 20260508232118 | 49 | 22 | 1.0 | 4.0 | 0.00 | 0.00 | 0.00 | 78 | 1022.2 |
| 20260508231939 | 49 | 22 | 1.0 | 4.0 | 0.00 | 0.00 | 0.00 | 79 | 1022.2 |
| 20260508231752 | 50 | 22 | 1.0 | 2.0 | 0.00 | 0.00 | 0.00 | 79 | 1022.2 |
| 20260508231555 | 50 | 22 | 1.0 | 2.0 | 0.00 | 0.00 | 0.00 | 79 | 1022.2 |
| 20260508231334 | 50 | 22 | 1.0 | 2.0 | 0.00 | 0.00 | 0.00 | 78 | 1022.2 |
| 20260508231215 | 50 | 45 | 1.0 | 2.0 | 0.00 | 0.00 | 0.00 | 78 | 1022.3 |
| 20260508231035 | 50 | 45 | 1.0 | 2.0 | 0.00 | 0.00 | 0.00 | 78 | 1022.3 |
| 20260508230839 | 50 | 45 | 1.0 | 3.0 | 0.00 | 0.00 | 0.00 | 79 | 1022.3 |
| 20260508230650 | 50 | 45 | 1.0 | 3.0 | 0.00 | 0.00 | 0.00 | 78 | 1022.3 |
| 20260508230505 | 50 | 45 | 1.0 | 3.0 | 0.00 | 0.00 | 0.00 | 78 | 1022.3 |
| 20260508230323 | 50 | 45 | 1.0 | 2.0 | 0.00 | 0.00 | 0.00 | 79 | 1022.3 |
| 20260508230135 | 50 | 45 | 1.0 | 2.0 | 0.00 | 0.00 | 0.00 | 79 | 1022.3 |
| 20260508225953 | 50 | 45 | 0.0 | 4.0 | 0.00 | 0.00 | 0.00 | 78 | 1022.2 |
| 20260508225815 | 50 | 45 | 0.0 | 4.0 | 0.00 | 0.00 | 0.00 | 78 | 1022.2 |
| 20260508225630 | 50 | 45 | 0.0 | 4.0 | 0.00 | 0.00 | 0.00 | 78 | 1022.2 |
| 20260508225537 | 50 | 45 | 0.0 | 2.0 | 0.00 | 0.00 | 0.00 | 79 | 1022.3 |
| 20260508225448 | 50 | 45 | 0.0 | 2.0 | 0.00 | 0.00 | 0.00 | 79 | 1022.2 |
| 20260508225306 | 50 | 0 | 0.0 | 0.0 | 0.00 | 0.00 | 0.00 | 79 | 1022.2 |
| 20260508225118 | 50 | 0 | 0.0 | 0.0 | 0.00 | 0.00 | 0.00 | 78 | 1022.2 |
| 20260508224935 | 51 | 45 | 0.0 | 0.0 | 0.00 | 0.00 | 0.00 | 77 | 1022.3 |
| 20260508224755 | 51 | 45 | 0.0 | 0.0 | 0.00 | 0.00 | 0.00 | 77 | 1022.2 |
| 20260508224605 | 51 | 45 | 1.0 | 0.0 | 0.00 | 0.00 | 0.00 | 76 | 1022.3 |
| 20260508224405 | 51 | 45 | 1.0 | 3.0 | 0.00 | 0.00 | 0.00 | 75 | 1022.3 |
| 20260508224210 | 51 | 45 | 1.0 | 3.0 | 0.00 | 0.00 | 0.00 | 75 | 1022.3 |
| 20260508224011 | 51 | 45 | 2.0 | 3.0 | 0.00 | 0.00 | 0.00 | 74 | 1022.3 |
| 20260508223830 | 51 | 45 | 1.0 | 4.0 | 0.00 | 0.00 | 0.00 | 74 | 1022.3 |
| 20260508223807 | 51 | 45 | 1.0 | 4.0 | 0.00 | 0.00 | 0.00 | 74 | 1022.3 |
| 20260508223651 | 51 | 45 | 1.0 | 5.0 | 0.00 | 0.00 | 0.00 | 74 | 1022.3 |
| 20260508223510 | 51 | 45 | 2.0 | 5.0 | 0.00 | 0.00 | 0.00 | 73 | 1022.4 |
| 20260508223310 | 51 | 45 | 2.0 | 5.0 | 0.00 | 0.00 | 0.00 | 73 | 1022.4 |
| 20260508223125 | 51 | 22 | 2.0 | 4.0 | 0.00 | 0.00 | 0.00 | 73 | 1022.4 |
| 20260508222935 | 51 | 22 | 1.0 | 3.0 | 0.00 | 0.00 | 0.00 | 74 | 1022.4 |
| 20260508222750 | 51 | 22 | 2.0 | 3.0 | 0.00 | 0.00 | 0.00 | 73 | 1022.3 |
| 20260508222559 | 52 | 22 | 2.0 | 3.0 | 0.00 | 0.00 | 0.00 | 74 | 1022.4 |
| 20260508222425 | 52 | 22 | 2.0 | 2.0 | 0.00 | 0.00 | 0.00 | 74 | 1022.4 |
| 20260508222225 | 52 | 22 | 2.0 | 3.0 | 0.00 | 0.00 | 0.00 | 74 | 1022.4 |
| 20260508222118 | 52 | 22 | 1.0 | 5.0 | 0.00 | 0.00 | 0.00 | 74 | 1022.3 |
| 20260508222030 | 52 | 22 | 1.0 | 5.0 | 0.00 | 0.00 | 0.00 | 74 | 1022.4 |
| 20260508221836 | 52 | 22 | 1.0 | 5.0 | 0.00 | 0.00 | 0.00 | 74 | 1022.3 |
| 20260508221659 | 52 | 90 | 1.0 | 5.0 | 0.00 | 0.00 | 0.00 | 75 | 1022.3 |
| 20260508221509 | 52 | 90 | 2.0 | 5.0 | 0.00 | 0.00 | 0.00 | 74 | 1022.3 |
| 20260508221329 | 52 | 90 | 2.0 | 5.0 | 0.00 | 0.00 | 0.00 | 74 | 1022.3 |
| 20260508221134 | 52 | 45 | 2.0 | 5.0 | 0.00 | 0.00 | 0.00 | 74 | 1022.3 |
| 20260508220955 | 52 | 45 | 2.0 | 5.0 | 0.00 | 0.00 | 0.00 | 74 | 1022.3 |
| 20260508220810 | 52 | 68 | 2.0 | 5.0 | 0.00 | 0.00 | 0.00 | 75 | 1022.3 |
| 20260508220625 | 52 | 68 | 2.0 | 5.0 | 0.00 | 0.00 | 0.00 | 74 | 1022.2 |
| 20260508220445 | 52 | 45 | 1.0 | 2.0 | 0.00 | 0.00 | 0.00 | 76 | 1022.4 |
| 20260508220255 | 52 | 45 | 2.0 | 4.0 | 0.00 | 0.00 | 0.00 | 76 | 1022.3 |
| 20260508220225 | 52 | 45 | 2.0 | 4.0 | 0.00 | 0.00 | 0.00 | 75 | 1022.3 |
| 20260508220118 | 52 | 45 | 2.0 | 4.0 | 0.00 | 0.00 | 0.00 | 75 | 1022.3 |
| 20260508215936 | 52 | 45 | 2.0 | 4.0 | 0.00 | 0.00 | 0.00 | 75 | 1022.3 |
| 20260508215744 | 52 | 45 | 2.0 | 4.0 | 0.00 | 0.00 | 0.00 | 75 | 1022.3 |
| 20260508215545 | 52 | 22 | 2.0 | 5.0 | 0.00 | 0.00 | 0.00 | 75 | 1022.3 |
| 20260508215359 | 52 | 45 | 2.0 | 5.0 | 0.00 | 0.00 | 0.00 | 76 | 1022.4 |
| 20260508215210 | 52 | 22 | 2.0 | 5.0 | 0.00 | 0.00 | 0.00 | 75 | 1022.4 |
| 20260508215030 | 52 | 68 | 2.0 | 4.0 | 0.00 | 0.00 | 0.00 | 76 | 1022.4 |
| 20260508214840 | 52 | 22 | 1.0 | 5.0 | 0.00 | 0.00 | 0.00 | 75 | 1022.3 |
| 20260508214650 | 52 | 45 | 1.0 | 5.0 | 0.00 | 0.00 | 0.00 | 76 | 1022.4 |
| 20260508214546 | 53 | 45 | 1.0 | 5.0 | 0.00 | 0.00 | 0.00 | 75 | 1022.3 |
| 20260508214502 | 53 | 22 | 1.0 | 5.0 | 0.00 | 0.00 | 0.00 | 75 | 1022.3 |
| 20260508214318 | 53 | 45 | 1.0 | 3.0 | 0.00 | 0.00 | 0.00 | 75 | 1022.3 |
| 20260508214118 | 53 | 45 | 1.0 | 3.0 | 0.00 | 0.00 | 0.00 | 75 | 1022.3 |
| 20260508213930 | 53 | 45 | 1.0 | 3.0 | 0.00 | 0.00 | 0.00 | 75 | 1022.3 |
| 20260508213741 | 53 | 45 | 1.0 | 3.0 | 0.00 | 0.00 | 0.00 | 75 | 1022.3 |
| 20260508213605 | 53 | 45 | 1.0 | 2.0 | 0.00 | 0.00 | 0.00 | 75 | 1022.2 |
| 20260508213413 | 53 | 45 | 1.0 | 2.0 | 0.00 | 0.00 | 0.00 | 74 | 1022.2 |
| 20260508213230 | 53 | 45 | 1.0 | 2.0 | 0.00 | 0.00 | 0.00 | 74 | 1022.3 |
| 20260508213039 | 53 | 45 | 1.0 | 5.0 | 0.00 | 0.00 | 0.00 | 74 | 1022.3 |
| 20260508212936 | 53 | 45 | 1.0 | 5.0 | 0.00 | 0.00 | 0.00 | 73 | 1022.3 |
| 20260508212855 | 53 | 45 | 1.0 | 5.0 | 0.00 | 0.00 | 0.00 | 73 | 1022.3 |
| 20260508212710 | 53 | 45 | 1.0 | 5.0 | 0.00 | 0.00 | 0.00 | 73 | 1022.3 |
| 20260508212530 | 53 | 45 | 1.0 | 5.0 | 0.00 | 0.00 | 0.00 | 73 | 1022.3 |
| 20260508212339 | 53 | 22 | 1.0 | 4.0 | 0.00 | 0.00 | 0.00 | 73 | 1022.3 |
| 20260508212155 | 53 | 22 | 1.0 | 4.0 | 0.00 | 0.00 | 0.00 | 73 | 1022.3 |
| 20260508211959 | 53 | 22 | 1.0 | 4.0 | 0.00 | 0.00 | 0.00 | 73 | 1022.3 |
| 20260508211810 | 53 | 22 | 2.0 | 2.0 | 0.00 | 0.00 | 0.00 | 73 | 1022.2 |
| 20260508211615 | 53 | 68 | 2.0 | 2.0 | 0.00 | 0.00 | 0.00 | 73 | 1022.3 |
| 20260508211437 | 53 | 68 | 2.0 | 5.0 | 0.00 | 0.00 | 0.00 | 73 | 1022.3 |
| 20260508211239 | 53 | 68 | 2.0 | 5.0 | 0.00 | 0.00 | 0.00 | 73 | 1022.3 |
| 20260508211209 | 53 | 68 | 2.0 | 5.0 | 0.00 | 0.00 | 0.00 | 73 | 1022.3 |
| 20260508211048 | 53 | 68 | 2.0 | 5.0 | 0.00 | 0.00 | 0.00 | 73 | 1022.3 |
| 20260508210910 | 53 | 90 | 2.0 | 5.0 | 0.00 | 0.00 | 0.00 | 73 | 1022.3 |
| 20260508210719 | 53 | 90 | 2.0 | 5.0 | 0.00 | 0.00 | 0.00 | 73 | 1022.3 |
| 20260508210530 | 53 | 45 | 2.0 | 5.0 | 0.00 | 0.00 | 0.00 | 74 | 1022.3 |
| 20260508210345 | 53 | 68 | 2.0 | 2.0 | 0.00 | 0.00 | 0.00 | 74 | 1022.2 |
| 20260508210154 | 53 | 68 | 2.0 | 2.0 | 0.00 | 0.00 | 0.00 | 74 | 1022.3 |
| 20260508210013 | 53 | 68 | 2.0 | 5.0 | 0.00 | 0.00 | 0.00 | 74 | 1022.3 |
| 20260508205822 | 53 | 68 | 2.0 | 5.0 | 0.00 | 0.00 | 0.00 | 74 | 1022.3 |
| 20260508205633 | 53 | 68 | 2.0 | 5.0 | 0.00 | 0.00 | 0.00 | 74 | 1022.4 |
| 20260508205437 | 53 | 22 | 1.0 | 5.0 | 0.00 | 0.00 | 0.00 | 74 | 1022.2 |
| 20260508205424 | 53 | 22 | 1.0 | 5.0 | 0.00 | 0.00 | 0.00 | 74 | 1022.3 |
| 20260508205238 | 53 | 22 | 1.0 | 5.0 | 0.00 | 0.00 | 0.00 | 74 | 1022.3 |
| 20260508205040 | 53 | 22 | 1.0 | 5.0 | 0.00 | 0.00 | 0.00 | 75 | 1022.3 |
| 20260508204847 | 53 | 68 | 1.0 | 4.0 | 0.00 | 0.00 | 0.00 | 75 | 1022.4 |
| 20260508204659 | 53 | 22 | 1.0 | 3.0 | 0.00 | 0.00 | 0.00 | 75 | 1022.4 |
| 20260508204503 | 53 | 45 | 1.0 | 3.0 | 0.00 | 0.00 | 0.00 | 75 | 1022.4 |
| 20260508204327 | 53 | 22 | 1.0 | 3.0 | 0.00 | 0.00 | 0.00 | 75 | 1022.3 |
| 20260508204151 | 53 | 22 | 1.0 | 3.0 | 0.00 | 0.00 | 0.00 | 74 | 1022.4 |
| 20260508204006 | 53 | 22 | 1.0 | 4.0 | 0.00 | 0.00 | 0.00 | 74 | 1022.3 |
| 20260508203808 | 53 | 22 | 1.0 | 4.0 | 0.00 | 0.00 | 0.00 | 74 | 1022.3 |
| 20260508203634 | 53 | 22 | 1.0 | 4.0 | 0.00 | 0.00 | 0.00 | 74 | 1022.3 |
| 20260508203617 | 53 | 22 | 1.0 | 4.0 | 0.00 | 0.00 | 0.00 | 74 | 1022.4 |
| 20260508203438 | 53 | 22 | 1.0 | 2.0 | 0.00 | 0.00 | 0.00 | 74 | 1022.3 |
| 20260508203303 | 53 | 22 | 1.0 | 2.0 | 0.00 | 0.00 | 0.00 | 74 | 1022.3 |
| 20260508203123 | 53 | 22 | 1.0 | 2.0 | 0.00 | 0.00 | 0.00 | 74 | 1022.3 |
| 20260508202925 | 53 | 22 | 2.0 | 3.0 | 0.00 | 0.00 | 0.00 | 73 | 1022.2 |
| 20260508202740 | 53 | 22 | 2.0 | 3.0 | 0.00 | 0.00 | 0.00 | 73 | 1022.2 |
| 20260508202555 | 53 | 22 | 2.0 | 5.0 | 0.00 | 0.00 | 0.00 | 73 | 1022.2 |
| 20260508202355 | 53 | 22 | 2.0 | 5.0 | 0.00 | 0.00 | 0.00 | 73 | 1022.2 |
| 20260508202210 | 53 | 22 | 2.0 | 5.0 | 0.00 | 0.00 | 0.00 | 73 | 1022.3 |
| 20260508202016 | 53 | 45 | 1.0 | 3.0 | 0.00 | 0.00 | 0.00 | 73 | 1022.1 |
| 20260508201820 | 53 | 45 | 2.0 | 3.0 | 0.00 | 0.00 | 0.00 | 73 | 1022.2 |
| 20260508201631 | 53 | 45 | 1.0 | 2.0 | 0.00 | 0.00 | 0.00 | 73 | 1022.1 |
| 20260508201445 | 53 | 45 | 1.0 | 2.0 | 0.00 | 0.00 | 0.00 | 73 | 1022.1 |
| 20260508201305 | 53 | 45 | 1.0 | 2.0 | 0.00 | 0.00 | 0.00 | 73 | 1022.1 |
| 20260508201118 | 53 | 45 | 1.0 | 2.0 | 0.00 | 0.00 | 0.00 | 73 | 1022.1 |
| 20260508200925 | 53 | 45 | 1.0 | 2.0 | 0.00 | 0.00 | 0.00 | 73 | 1022.1 |
| 20260508200740 | 53 | 45 | 1.0 | 2.0 | 0.00 | 0.00 | 0.00 | 73 | 1022.1 |
| 20260508200540 | 53 | 45 | 1.0 | 2.0 | 0.00 | 0.00 | 0.00 | 73 | 1022.1 |
| 20260508200340 | 53 | 45 | 1.0 | 2.0 | 0.00 | 0.00 | 0.00 | 73 | 1022.0 |
| 20260508200142 | 53 | 45 | 1.0 | 2.0 | 0.00 | 0.00 | 0.00 | 73 | 1022.1 |
| 20260508195955 | 53 | 45 | 1.0 | 2.0 | 0.00 | 0.00 | 0.00 | 73 | 1022.0 |
| 20260508195810 | 53 | 45 | 2.0 | 2.0 | 0.00 | 0.00 | 0.00 | 72 | 1022.1 |
| 20260508195613 | 53 | 45 | 2.0 | 5.0 | 0.00 | 0.00 | 0.00 | 72 | 1022.1 |
| 20260508195417 | 54 | 22 | 2.0 | 5.0 | 0.00 | 0.00 | 0.00 | 72 | 1022.0 |
| 20260508195225 | 54 | 22 | 1.0 | 5.0 | 0.00 | 0.00 | 0.00 | 72 | 1022.1 |
| 20260508195040 | 54 | 0 | 1.0 | 5.0 | 0.00 | 0.00 | 0.00 | 72 | 1022.0 |
| 20260508194845 | 54 | 68 | 1.0 | 4.0 | 0.00 | 0.00 | 0.00 | 72 | 1022.1 |
| 20260508194655 | 54 | 22 | 1.0 | 4.0 | 0.00 | 0.00 | 0.00 | 72 | 1022.0 |
| 20260508194547 | 54 | 22 | 1.0 | 4.0 | 0.00 | 0.00 | 0.00 | 72 | 1022.0 |
| 20260508194515 | 54 | 22 | 1.0 | 4.0 | 0.00 | 0.00 | 0.00 | 72 | 1021.9 |
| 20260508194324 | 54 | 22 | 1.0 | 5.0 | 0.00 | 0.00 | 0.00 | 72 | 1022.0 |
| 20260508194135 | 54 | 22 | 1.0 | 5.0 | 0.00 | 0.00 | 0.00 | 72 | 1022.0 |
| 20260508193943 | 54 | 45 | 1.0 | 5.0 | 0.00 | 0.00 | 0.00 | 72 | 1022.0 |
| 20260508193805 | 54 | 45 | 1.0 | 2.0 | 0.00 | 0.00 | 0.00 | 72 | 1022.1 |
| 20260508193605 | 54 | 45 | 1.0 | 5.0 | 0.00 | 0.00 | 0.00 | 72 | 1022.0 |
| 20260508193404 | 54 | 45 | 1.0 | 5.0 | 0.00 | 0.00 | 0.00 | 71 | 1022.0 |
| 20260508193225 | 54 | 45 | 1.0 | 5.0 | 0.00 | 0.00 | 0.00 | 71 | 1021.9 |
| 20260508193050 | 54 | 90 | 1.0 | 4.0 | 0.00 | 0.00 | 0.00 | 71 | 1022.0 |
| 20260508192848 | 54 | 90 | 1.0 | 4.0 | 0.00 | 0.00 | 0.00 | 71 | 1021.9 |
| 20260508192822 | 54 | 90 | 1.0 | 4.0 | 0.00 | 0.00 | 0.00 | 71 | 1021.9 |
| 20260508192655 | 54 | 45 | 1.0 | 5.0 | 0.00 | 0.00 | 0.00 | 71 | 1021.9 |
| 20260508192505 | 54 | 45 | 1.0 | 5.0 | 0.00 | 0.00 | 0.00 | 71 | 1021.9 |
| 20260508192325 | 54 | 45 | 1.0 | 5.0 | 0.00 | 0.00 | 0.00 | 70 | 1021.9 |
| 20260508192140 | 54 | 68 | 0.0 | 3.0 | 0.00 | 0.00 | 0.00 | 70 | 1021.9 |
| 20260508191946 | 54 | 68 | 0.0 | 3.0 | 0.00 | 0.00 | 0.00 | 70 | 1021.8 |
| 20260508191810 | 54 | 90 | 0.0 | 2.0 | 0.00 | 0.00 | 0.00 | 70 | 1021.8 |
| 20260508191627 | 54 | 90 | 0.0 | 1.0 | 0.00 | 0.00 | 0.00 | 70 | 1021.8 |
| 20260508191430 | 54 | 90 | 0.0 | 2.0 | 0.00 | 0.00 | 0.00 | 69 | 1021.7 |
| 20260508191245 | 54 | 90 | 1.0 | 2.0 | 0.00 | 0.00 | 0.00 | 70 | 1021.8 |
| 20260508191107 | 54 | 90 | 1.0 | 2.0 | 0.00 | 0.00 | 0.00 | 69 | 1021.8 |
| 20260508191002 | 54 | 90 | 1.0 | 2.0 | 0.00 | 0.00 | 0.00 | 69 | 1021.7 |
| 20260508190915 | 54 | 90 | 1.0 | 2.0 | 0.00 | 0.00 | 0.00 | 69 | 1021.8 |
| 20260508190725 | 54 | 90 | 1.0 | 2.0 | 0.00 | 0.00 | 0.00 | 69 | 1021.8 |
| 20260508190540 | 54 | 90 | 1.0 | 2.0 | 0.00 | 0.00 | 0.00 | 69 | 1021.8 |
| 20260508190345 | 54 | 90 | 0.0 | 2.0 | 0.00 | 0.00 | 0.00 | 69 | 1021.7 |
| 20260508190150 | 54 | 90 | 0.0 | 2.0 | 0.00 | 0.00 | 0.00 | 68 | 1021.8 |
| 20260508190002 | 54 | 90 | 0.0 | 1.0 | 0.00 | 0.00 | 0.00 | 69 | 1021.7 |
| 20260508185818 | 54 | 90 | 0.0 | 2.0 | 0.00 | 0.00 | 0.00 | 68 | 1021.7 |
| 20260508185633 | 54 | 90 | 0.0 | 2.0 | 0.00 | 0.00 | 0.00 | 68 | 1021.7 |
| 20260508185435 | 54 | 90 | 0.0 | 2.0 | 0.00 | 0.00 | 0.00 | 68 | 1021.7 |
| 20260508185339 | 55 | 90 | 0.0 | 2.0 | 0.00 | 0.00 | 0.00 | 68 | 1021.6 |
| 20260508185250 | 55 | 90 | 0.0 | 2.0 | 0.00 | 0.00 | 0.00 | 68 | 1021.6 |
| 20260508185050 | 55 | 90 | 0.0 | 2.0 | 0.00 | 0.00 | 0.00 | 68 | 1021.6 |
| 20260508184855 | 55 | 90 | 0.0 | 2.0 | 0.00 | 0.00 | 0.00 | 67 | 1021.6 |
| 20260508184707 | 55 | 90 | 0.0 | 2.0 | 0.00 | 0.00 | 0.00 | 68 | 1021.6 |
| 20260508184530 | 55 | 90 | 0.0 | 2.0 | 0.00 | 0.00 | 0.00 | 67 | 1021.6 |
| 20260508184335 | 55 | 90 | 0.0 | 2.0 | 0.00 | 0.00 | 0.00 | 67 | 1021.7 |
| 20260508184134 | 55 | 45 | 0.0 | 1.0 | 0.00 | 0.00 | 0.00 | 68 | 1021.6 |
| 20260508183950 | 55 | 45 | 0.0 | 2.0 | 0.00 | 0.00 | 0.00 | 67 | 1021.6 |
| 20260508183800 | 55 | 45 | 0.0 | 2.0 | 0.00 | 0.00 | 0.00 | 67 | 1021.5 |
| 20260508183721 | 55 | 45 | 0.0 | 2.0 | 0.00 | 0.00 | 0.00 | 67 | 1021.6 |
| 20260508183610 | 55 | 45 | 0.0 | 2.0 | 0.00 | 0.00 | 0.00 | 67 | 1021.6 |
| 20260508183425 | 55 | 45 | 0.0 | 1.0 | 0.00 | 0.00 | 0.00 | 68 | 1021.5 |
| 20260508183240 | 55 | 45 | 0.0 | 2.0 | 0.00 | 0.00 | 0.00 | 67 | 1021.6 |
| 20260508183045 | 55 | 45 | 1.0 | 2.0 | 0.00 | 0.00 | 0.00 | 66 | 1021.5 |
| 20260508182845 | 55 | 45 | 1.0 | 0.0 | 0.00 | 0.00 | 0.00 | 66 | 1021.5 |
| 20260508182655 | 55 | 45 | 1.0 | 5.0 | 0.00 | 0.00 | 0.00 | 66 | 1021.4 |
| 20260508182507 | 55 | 45 | 1.0 | 5.0 | 0.00 | 0.00 | 0.00 | 65 | 1021.4 |
| 20260508182319 | 55 | 45 | 1.0 | 5.0 | 0.00 | 0.00 | 0.00 | 65 | 1021.4 |
| 20260508182135 | 55 | 45 | 1.0 | 5.0 | 0.00 | 0.00 | 0.00 | 65 | 1021.4 |
| 20260508181945 | 56 | 45 | 1.0 | 2.0 | 0.00 | 0.00 | 0.00 | 65 | 1021.4 |
| 20260508181832 | 56 | 45 | 1.0 | 3.0 | 0.00 | 0.00 | 0.00 | 66 | 1021.4 |
| 20260508181800 | 56 | 45 | 1.0 | 3.0 | 0.00 | 0.00 | 0.00 | 65 | 1021.3 |
| 20260508181605 | 56 | 45 | 1.0 | 5.0 | 0.00 | 0.00 | 0.00 | 65 | 1021.3 |
| 20260508181427 | 56 | 45 | 1.0 | 5.0 | 0.00 | 0.00 | 0.00 | 65 | 1021.3 |
| 20260508181240 | 56 | 22 | 1.0 | 4.0 | 0.00 | 0.00 | 0.00 | 65 | 1021.3 |
| 20260508181047 | 56 | 338 | 1.0 | 2.0 | 0.00 | 0.00 | 0.00 | 65 | 1021.4 |
| 20260508180855 | 56 | 45 | 1.0 | 3.0 | 0.00 | 0.00 | 0.00 | 65 | 1021.3 |
| 20260508180710 | 56 | 68 | 1.0 | 2.0 | 0.00 | 0.00 | 0.00 | 65 | 1021.3 |
| 20260508180527 | 56 | 68 | 0.0 | 2.0 | 0.00 | 0.00 | 0.00 | 65 | 1021.3 |
| 20260508180335 | 56 | 68 | 1.0 | 2.0 | 0.00 | 0.00 | 0.00 | 65 | 1021.3 |
| 20260508180144 | 56 | 68 | 1.0 | 2.0 | 0.00 | 0.00 | 0.00 | 65 | 1021.3 |
| 20260508180035 | 56 | 68 | 1.0 | 3.0 | 0.00 | 0.00 | 0.00 | 65 | 1021.3 |
| 20260508175952 | 56 | 68 | 1.0 | 3.0 | 0.00 | 0.00 | 0.00 | 65 | 1021.3 |
| 20260508175805 | 56 | 45 | 1.0 | 5.0 | 0.00 | 0.00 | 0.00 | 64 | 1021.2 |
| 20260508175610 | 56 | 68 | 1.0 | 5.0 | 0.00 | 0.00 | 0.00 | 64 | 1021.2 |
| 20260508175425 | 56 | 45 | 1.0 | 5.0 | 0.00 | 0.00 | 0.00 | 63 | 1021.2 |
| 20260508175231 | 56 | 68 | 1.0 | 2.0 | 0.00 | 0.00 | 0.00 | 63 | 1021.2 |
| 20260508175045 | 56 | 68 | 1.0 | 2.0 | 0.00 | 0.00 | 0.00 | 63 | 1021.2 |
| 20260508174855 | 56 | 68 | 1.0 | 2.0 | 0.00 | 0.00 | 0.00 | 62 | 1021.2 |
| 20260508174704 | 56 | 68 | 1.0 | 4.0 | 0.00 | 0.00 | 0.00 | 62 | 1021.2 |
| 20260508174507 | 57 | 45 | 2.0 | 4.0 | 0.00 | 0.00 | 0.00 | 62 | 1021.2 |
| 20260508174315 | 57 | 45 | 2.0 | 4.0 | 0.00 | 0.00 | 0.00 | 62 | 1021.2 |
| 20260508174305 | 57 | 45 | 2.0 | 4.0 | 0.00 | 0.00 | 0.00 | 62 | 1021.1 |
| 20260508174127 | 57 | 22 | 2.0 | 4.0 | 0.00 | 0.00 | 0.00 | 61 | 1021.1 |
| 20260508173930 | 57 | 45 | 2.0 | 7.0 | 0.00 | 0.00 | 0.00 | 61 | 1021.1 |
| 20260508173750 | 57 | 45 | 2.0 | 7.0 | 0.00 | 0.00 | 0.00 | 62 | 1021.2 |
| 20260508173605 | 57 | 45 | 2.0 | 7.0 | 0.00 | 0.00 | 0.00 | 61 | 1021.1 |
| 20260508173407 | 57 | 45 | 1.0 | 5.0 | 0.00 | 0.00 | 0.00 | 62 | 1021.1 |
| 20260508173225 | 57 | 90 | 1.0 | 5.0 | 0.00 | 0.00 | 0.00 | 61 | 1021.2 |
| 20260508173035 | 57 | 45 | 1.0 | 5.0 | 0.00 | 0.00 | 0.00 | 61 | 1021.1 |
| 20260508172855 | 57 | 22 | 1.0 | 4.0 | 0.00 | 0.00 | 0.00 | 61 | 1021.2 |
| 20260508172705 | 57 | 68 | 0.0 | 2.0 | 0.00 | 0.00 | 0.00 | 62 | 1021.1 |
| 20260508172517 | 57 | 68 | 1.0 | 2.0 | 0.00 | 0.00 | 0.00 | 62 | 1021.1 |
| 20260508172510 | 57 | 68 | 1.0 | 2.0 | 0.00 | 0.00 | 0.00 | 62 | 1021.1 |
| 20260508172331 | 57 | 68 | 1.0 | 2.0 | 0.00 | 0.00 | 0.00 | 61 | 1021.1 |
| 20260508172145 | 57 | 68 | 1.0 | 5.0 | 0.00 | 0.00 | 0.00 | 61 | 1021.1 |
| 20260508171952 | 57 | 68 | 2.0 | 5.0 | 0.00 | 0.00 | 0.00 | 61 | 1021.1 |
| 20260508171807 | 57 | 45 | 2.0 | 4.0 | 0.00 | 0.00 | 0.00 | 59 | 1021.0 |
| 20260508171622 | 57 | 22 | 2.0 | 4.0 | 0.00 | 0.00 | 0.00 | 60 | 1021.0 |
| 20260508171432 | 57 | 22 | 2.0 | 4.0 | 0.00 | 0.00 | 0.00 | 60 | 1021.0 |
| 20260508171235 | 57 | 68 | 2.0 | 4.0 | 0.00 | 0.00 | 0.00 | 59 | 1020.9 |
| 20260508171052 | 57 | 0 | 3.0 | 4.0 | 0.00 | 0.00 | 0.00 | 59 | 1021.0 |
| 20260508170905 | 58 | 90 | 2.0 | 6.0 | 0.00 | 0.00 | 0.00 | 60 | 1020.9 |
| 20260508170816 | 58 | 22 | 2.0 | 6.0 | 0.00 | 0.00 | 0.00 | 59 | 1021.0 |
| 20260508170714 | 58 | 22 | 2.0 | 6.0 | 0.00 | 0.00 | 0.00 | 59 | 1020.9 |
| 20260508170517 | 58 | 45 | 2.0 | 7.0 | 0.00 | 0.00 | 0.00 | 58 | 1020.8 |
| 20260508170340 | 58 | 22 | 2.0 | 7.0 | 0.00 | 0.00 | 0.00 | 59 | 1020.9 |
| 20260508170200 | 58 | 45 | 2.0 | 7.0 | 0.00 | 0.00 | 0.00 | 59 | 1020.9 |
| 20260508170005 | 58 | 338 | 1.0 | 5.0 | 0.00 | 0.00 | 0.00 | 58 | 1020.9 |
| 20260508165809 | 58 | 22 | 2.0 | 5.0 | 0.00 | 0.00 | 0.00 | 59 | 1020.9 |
| 20260508165620 | 58 | 22 | 2.0 | 5.0 | 0.00 | 0.00 | 0.00 | 58 | 1020.8 |
| 20260508165430 | 58 | 90 | 1.0 | 2.0 | 0.00 | 0.00 | 0.00 | 58 | 1020.8 |
| 20260508165235 | 58 | 90 | 1.0 | 5.0 | 0.00 | 0.00 | 0.00 | 58 | 1020.9 |
| 20260508165113 | 58 | 90 | 1.0 | 5.0 | 0.00 | 0.00 | 0.00 | 58 | 1020.8 |
| 20260508165035 | 58 | 90 | 1.0 | 5.0 | 0.00 | 0.00 | 0.00 | 58 | 1020.8 |
| 20260508164840 | 58 | 90 | 1.0 | 5.0 | 0.00 | 0.00 | 0.00 | 57 | 1020.8 |